GEFSSGP_con_prob3kmehi_000.txt.gz
EHI
0 0 0 0 0 0 0 0 0 0 0 0 0 0 0 0 0 0 0 7 15 12 2 0 0 1 1 0 0 0 0 1 5 14 21 18 10 5 3 2 1 0 0 0 0 0 0 0 0
0 0 0 0 0 0 0 0 0 0 0 0 0 0 0 0 0 0 0 5 11 8 3 2 2 2 2 0 0 0 1 1 3 7 11 11 8 4 3 2 1 0 1 1 1 1 0 0 0
0 0 0 0 0 0 0 0 0 0 0 0 0 0 0 0 0 0 0 2 5 7 9 9 8 7 4 2 0 2 3 3 1 2 3 6 7 5 3 3 3 2 2 2 2 1 0 0 0
0 0 0 0 0 0 0 0 0 0 0 0 0 0 0 0 0 0 2 5 10 19 29 35 34 26 14 5 2 6 11 10 5 4 6 9 10 6 3 5 7 6 3 1 1 1 0 0 0
0 0 0 0 0 0 0 0 0 0 0 0 0 0 0 0 0 0 7 20 29 35 46 56 59 49 27 11 9 15 20 18 12 9 13 18 13 4 2 5 11 14 12 7 2 0 0 0 0
0 0 0 0 0 0 0 0 0 0 0 0 0 0 0 0 0 2 14 32 38 36 39 46 56 59 50 36 30 29 27 23 18 12 17 22 16 5 2 6 17 28 27 14 3 0 0 0 0
0 0 0 0 0 0 0 0 0 0 0 0 0 0 1 2 4 13 31 40 34 30 34 40 44 50 56 54 48 45 45 42 33 21 17 18 14 6 5 11 20 29 24 10 2 0 0 0 0
0 0 0 0 0 0 0 0 0 0 0 0 0 0 1 3 12 33 55 57 44 39 48 53 43 30 30 33 36 44 52 51 41 28 16 11 9 7 7 11 15 13 8 2 0 0 0 0 0
0 0 0 0 0 0 0 0 0 0 0 0 0 0 2 4 15 42 66 72 67 58 54 48 33 14 5 5 11 20 27 26 24 19 12 7 7 7 7 8 7 3 0 0 0 0 0 0 0
0 0 0 0 0 0 0 0 0 0 0 0 0 1 3 4 9 27 54 72 71 56 39 26 16 6 1 0 1 2 3 3 5 6 7 7 8 7 5 3 2 1 0 0 0 0 0 0 0
0 0 0 0 0 0 0 0 0 0 0 0 1 2 3 3 3 14 40 57 47 28 16 9 4 1 0 0 0 0 0 0 1 2 3 5 5 4 2 0 0 0 0 0 0 0 0 0 0
0 0 0 0 0 0 0 0 0 0 0 0 1 2 2 1 1 10 27 30 17 6 3 2 1 0 0 0 0 0 0 0 0 0 1 2 2 1 0 0 0 0 0 0 0 0 0 0 0
0 0 0 0 0 0 0 0 0 0 0 0 0 1 2 1 1 6 12 11 5 3 2 1 0 0 0 1 1 0 0 0 0 0 0 0 0 0 0 0 0 0 0 0 0 0 0 0 0
0 0 0 0 0 0 0 0 0 0 0 0 0 1 1 1 1 2 3 4 3 3 2 1 0 0 1 2 1 0 0 0 0 0 0 0 0 0 0 0 0 0 0 0 0 0 0 0 0
0 0 0 0 0 0 0 0 0 0 0 0 0 0 0 0 0 1 1 1 1 7 15 15 7 3 4 4 2 0 0 0 0 0 0 0 0 0 0 0 0 0 0 0 0 0 0 0 0
0 0 0 0 0 0 0 0 0 0 0 0 0 0 0 0 0 0 0 0 2 19 45 45 22 8 7 5 2 0 0 0 0 0 0 0 0 0 0 0 0 0 0 0 0 0 0 0 0
0 0 0 0 0 0 0 0 0 0 0 0 0 0 0 0 0 0 0 2 11 38 71 72 42 19 9 3 1 0 0 0 0 0 0 0 0 0 0 0 0 0 0 0 0 0 0 0 0
0 0 0 0 0 0 0 0 0 0 0 0 0 0 0 0 0 0 2 10 30 60 84 81 56 29 10 2 1 0 0 0 0 0 0 0 0 0 0 0 0 0 0 0 0 0 0 0 0
0 0 0 0 0 0 0 0 0 0 0 0 0 0 0 0 0 0 4 19 47 75 87 76 52 26 8 2 2 1 0 0 0 1 2 1 0 0 1 2 1 1 0 0 0 0 0 0 0
0 0 0 0 0 0 0 0 0 0 0 0 0 0 0 0 0 0 4 20 49 74 78 62 38 15 4 2 2 1 0 0 0 1 3 2 0 0 2 3 2 0 0 0 1 1 0 0 0
0 0 0 0 0 0 0 0 0 0 0 0 0 0 0 0 0 0 2 13 35 51 51 42 28 13 5 1 1 1 1 1 1 1 1 1 0 0 1 2 1 0 1 1 2 1 0 0 0
0 0 0 0 0 0 0 0 0 0 0 0 0 0 0 0 0 0 1 5 13 18 18 18 18 12 4 1 1 1 2 2 1 0 0 0 0 0 0 0 0 1 2 2 2 1 0 0 0
0 0 0 0 0 0 0 0 0 0 0 0 0 0 0 0 0 0 0 1 1 1 1 4 6 5 2 1 2 2 2 1 0 0 0 0 0 0 0 0 0 1 2 1 1 0 0 0 0
0 0 0 0 0 0 0 0 0 0 0 0 0 0 0 0 0 0 0 0 0 0 0 0 0 0 0 1 1 1 1 0 0 0 0 0 0 0 0 0 0 1 1 0 0 0 0 0 0
0 0 0 0 0 0 0 0 0 0 0 0 0 0 0 0 0 0 0 0 0 0 0 0 0 0 0 0 0 0 0 0 0 0 0 0 0 0 0 0 0 0 0 0 0 0 0 0 0
0 0 0 0 0 0 0 0 0 0 0 0 0 0 0 0 0 0 0 0 0 0 0 0 0 0 0 0 0 0 0 0 0 0 0 0 0 0 0 0 0 0 0 0 0 0 0 0 0
0 0 0 0 0 0 0 0 0 0 0 0 0 0 0 0 0 0 0 0 0 0 0 0 0 0 0 0 0 0 0 0 0 0 0 0 0 0 0 0 0 0 0 0 0 0 0 0 0
0 0 0 0 0 0 0 0 0 0 0 0 0 0 0 0 0 0 0 0 0 0 0 0 0 0 0 0 0 0 0 0 0 0 0 0 0 0 0 0 0 0 0 0 0 0 0 0 0
0 0 0 0 0 0 0 0 0 0 0 0 0 0 0 0 0 0 0 0 0 0 0 0 0 0 0 0 0 0 0 0 0 0 0 0 0 0 0 0 0 0 0 0 0 0 0 0 0
0 0 0 0 0 0 0 0 0 0 0 0 0 0 0 0 0 0 0 0 0 0 0 0 0 0 0 0 0 0 0 0 0 0 0 0 0 0 0 0 0 0 0 0 0 0 0 0 0

GEFSSGP_con_prob3kmehi_006.txt.gz
EHI
0 0 0 0 0 0 0 0 0 0 0 0 0 1 1 1 6 12 20 49 71 48 13 1 0 0 0 0 0 0 3 8 10 6 2 0 0 0 0 0 0 0 0 0 0 0 0 0 0
0 0 0 0 0 0 0 0 0 0 0 0 0 1 2 1 3 8 25 56 68 43 14 2 0 0 0 0 0 1 4 9 11 9 4 1 0 0 0 0 0 1 3 4 3 2 1 0 0
0 0 0 0 0 0 0 0 0 0 0 0 0 0 1 0 1 7 27 51 58 39 14 2 0 0 0 1 2 2 3 5 8 8 6 2 0 0 0 0 1 5 9 9 6 4 2 0 0
0 0 0 0 0 0 0 0 0 0 0 0 0 0 0 1 3 10 20 37 45 29 9 2 0 0 0 2 4 4 2 2 4 7 7 4 1 1 1 1 3 10 13 10 5 2 1 0 0
0 0 0 0 0 0 0 0 0 0 0 0 0 1 0 2 6 8 15 34 42 27 10 4 1 0 1 4 6 5 5 7 9 12 13 10 7 6 4 4 8 13 12 6 1 0 0 0 0
0 0 0 0 0 0 0 0 0 0 0 0 0 0 0 2 5 6 17 41 54 44 27 10 1 3 11 16 14 9 9 15 21 22 20 16 14 12 11 14 17 16 8 2 0 0 0 0 0
0 0 0 0 0 0 0 0 0 0 0 0 0 0 2 3 5 8 19 41 59 60 40 14 1 8 21 25 18 11 10 17 26 27 21 14 13 13 15 20 21 13 5 1 0 0 0 0 0
0 0 0 0 0 0 0 0 0 0 0 0 0 1 4 6 7 9 15 26 46 56 38 14 9 17 22 19 11 5 5 10 18 20 12 6 6 8 10 13 12 6 2 0 0 0 0 0 0
0 0 0 0 0 0 0 0 0 0 0 0 3 6 8 5 4 6 10 16 31 43 35 22 23 27 20 8 2 1 1 2 5 6 3 1 2 3 3 4 3 1 0 0 0 0 0 0 0
0 0 0 0 0 0 0 0 0 0 0 1 9 16 11 3 1 3 11 20 31 40 35 25 24 22 14 4 0 0 0 0 0 0 0 0 1 1 1 0 0 0 0 0 0 0 0 0 0
0 0 0 0 0 0 0 0 0 0 0 1 11 19 11 2 0 6 17 28 36 38 27 16 14 15 9 3 0 0 1 2 2 1 0 0 1 1 0 0 0 0 0 0 0 0 0 0 0
0 0 0 0 0 0 0 0 0 0 0 1 6 10 7 1 0 7 19 25 27 25 17 17 26 32 25 13 4 1 2 5 6 2 0 0 0 0 0 0 0 0 0 0 0 0 0 0 0
0 0 0 0 0 0 0 0 0 0 0 0 1 2 1 0 0 5 10 13 14 22 31 43 57 57 48 33 14 3 3 4 5 2 0 0 0 0 0 0 0 0 0 0 0 0 0 0 0
0 0 0 0 0 0 0 0 0 0 0 0 0 0 0 1 1 2 3 4 14 40 64 74 74 68 57 40 20 5 2 2 2 1 0 0 0 0 0 0 0 0 0 0 0 0 0 0 0
0 0 0 0 0 0 0 0 0 0 0 0 0 0 0 1 1 1 2 7 27 63 88 83 71 66 59 43 23 7 2 1 1 1 0 0 0 0 0 0 0 0 0 0 0 0 0 0 1
0 0 0 0 0 0 0 0 0 0 0 0 0 0 0 0 1 4 9 19 44 74 87 73 58 59 65 60 42 21 12 8 4 1 0 0 0 0 0 0 0 1 2 2 1 4 9 14 17
0 0 0 0 0 0 0 0 0 0 0 0 0 0 1 1 3 11 23 38 59 72 68 53 47 54 69 76 69 49 33 22 12 8 6 3 0 1 1 2 5 13 20 21 17 18 29 38 41
0 0 0 0 0 0 0 0 0 0 0 0 0 0 2 4 9 22 42 59 70 68 52 40 45 59 73 82 83 73 58 43 32 28 23 16 13 16 16 14 20 36 50 53 44 36 38 42 41
0 0 0 0 0 0 0 0 0 0 0 0 0 1 4 9 19 39 61 76 79 70 51 43 54 70 82 89 90 85 72 59 52 47 40 32 29 30 32 29 34 48 62 64 55 41 28 21 19
0 0 0 0 0 0 0 0 0 0 0 0 0 3 11 23 38 57 75 81 79 70 58 53 60 72 82 88 90 86 74 59 49 43 36 29 22 20 25 31 30 35 42 45 42 30 14 6 4
0 0 0 0 0 0 0 0 0 0 0 0 1 7 23 44 57 63 64 62 57 53 50 50 52 57 63 68 70 68 57 41 28 21 16 11 6 4 10 15 16 15 17 20 20 14 7 2 1
0 0 0 0 0 0 0 0 0 0 0 1 4 14 33 52 54 45 34 27 23 22 26 30 32 32 33 35 37 35 27 17 9 4 2 1 0 1 2 4 5 4 4 5 5 4 2 1 0
0 0 0 0 0 0 0 0 0 0 1 2 6 16 29 35 29 17 9 5 3 4 6 10 12 13 12 12 11 10 6 2 1 0 0 0 0 0 0 1 1 1 1 1 1 2 1 0 0
0 0 0 0 0 0 0 0 1 2 3 3 5 10 14 13 8 3 1 0 0 0 1 2 2 3 3 2 2 1 0 0 0 0 0 0 0 0 0 0 0 0 0 0 0 0 0 0 0
0 0 0 0 0 0 0 0 2 6 6 5 3 4 4 2 1 0 0 0 0 0 0 0 0 0 0 0 0 0 0 0 0 0 0 0 0 0 0 0 0 0 0 0 0 0 0 0 0
0 0 0 0 0 0 0 0 6 14 15 8 3 1 0 0 0 0 0 0 0 0 0 0 0 0 0 0 0 0 0 0 0 0 0 0 0 0 0 0 0 0 0 0 0 0 0 0 0
0 0 0 0 0 0 0 1 10 24 24 12 2 0 0 0 0 0 0 0 0 0 0 0 0 0 0 0 0 0 0 0 0 0 0 0 0 0 0 0 0 0 0 0 0 0 0 0 0
0 0 0 0 0 0 0 2 11 25 24 10 1 0 0 0 0 0 0 0 0 0 0 0 0 0 0 0 0 0 0 0 0 0 0 0 0 0 0 0 0 0 0 0 0 0 0 0 0
0 0 0 0 0 0 0 1 6 16 17 8 1 0 0 0 0 0 0 0 0 0 0 0 0 0 0 0 0 0 0 0 0 0 0 0 0 0 0 0 0 0 0 0 0 0 0 0 0
0 0 0 0 0 0 0 0 2 9 13 8 2 0 0 0 0 0 0 0 0 0 0 0 0 0 0 0 0 0 0 0 0 0 0 0 0 0 0 0 0 0 0 0 0 0 0 0 0

GEFSSGP_con_prob3kmehi_012.txt.gz
EHI
0 0 0 0 0 0 0 0 0 0 0 1 5 10 11 6 2 1 1 0 0 0 0 0 0 0 0 0 0 0 0 0 1 2 2 1 0 0 0 0 0 0 0 0 0 0 0 0 0
0 0 0 0 0 0 0 0 0 0 0 2 6 10 8 4 2 2 1 0 0 0 0 0 0 0 0 0 0 0 0 0 0 1 1 0 1 1 0 0 0 0 0 0 0 0 0 0 0
0 0 0 0 0 0 0 0 0 0 0 1 3 5 4 3 4 3 1 0 0 0 0 0 0 0 0 1 2 3 3 3 1 0 0 0 1 2 1 0 0 0 0 0 0 0 0 0 0
0 0 0 0 0 0 0 0 0 0 0 0 0 0 1 8 17 16 6 0 0 0 0 0 0 0 1 3 6 12 17 18 14 8 3 1 1 2 1 0 0 0 0 0 0 0 0 0 0
0 0 0 0 0 0 0 0 0 0 0 0 0 1 3 16 34 31 12 2 1 0 0 0 1 3 7 12 18 26 37 42 37 25 12 4 1 2 2 1 0 1 1 1 1 1 0 0 0
0 0 0 0 0 0 0 0 0 0 0 0 1 2 6 21 37 32 14 5 2 0 0 0 2 10 23 32 35 37 44 49 44 31 17 6 1 1 1 1 1 1 2 2 2 1 0 0 0
0 0 0 0 0 0 0 0 0 0 0 0 1 2 6 18 30 27 17 8 3 1 0 0 2 12 30 40 37 32 33 33 27 19 11 4 1 1 1 0 0 1 1 1 1 0 0 0 0
0 0 0 0 0 0 0 0 0 0 0 0 1 1 6 19 33 35 28 16 6 2 2 2 3 8 18 25 21 17 18 18 13 9 6 2 1 0 0 0 0 0 0 0 0 0 0 0 0
0 0 0 0 0 0 0 0 0 1 2 3 3 4 12 29 46 55 46 26 11 6 5 5 4 4 6 7 5 5 8 10 8 5 4 3 1 0 0 0 0 0 0 0 0 0 0 0 0
0 0 0 0 0 0 0 0 1 3 6 8 11 16 28 45 61 69 58 33 17 14 11 6 3 2 2 1 0 1 2 3 3 2 2 1 0 0 0 0 0 0 0 0 0 0 0 0 0
0 0 0 0 0 0 0 0 1 2 5 8 16 30 43 55 66 70 60 39 24 21 17 7 2 1 0 0 0 0 0 0 0 0 0 0 0 0 0 0 0 0 0 0 0 0 0 0 0
0 0 0 0 0 0 0 0 0 1 1 5 16 31 42 51 60 61 56 45 32 25 18 8 2 0 0 0 0 1 1 1 0 0 0 0 0 0 0 0 0 0 0 0 0 0 0 0 0
0 0 0 0 0 0 0 0 0 0 0 4 13 22 28 36 45 49 51 48 38 24 13 7 3 0 0 0 0 1 2 1 0 0 0 0 0 0 0 0 0 0 0 0 0 0 0 0 0
0 0 0 0 0 0 0 0 0 0 1 4 8 11 15 24 34 42 46 45 37 22 10 5 4 1 0 0 0 1 1 0 0 0 0 0 0 0 0 0 0 0 0 0 0 0 0 0 0
0 0 0 0 0 0 0 0 0 0 1 3 6 8 12 20 29 38 43 42 34 23 11 6 3 1 0 0 0 0 0 0 0 0 0 0 0 0 0 0 0 0 0 0 0 0 0 0 0
0 0 0 0 0 0 0 0 0 1 2 4 10 15 19 22 26 34 40 39 33 23 12 5 3 1 0 0 0 0 0 0 0 0 0 0 0 0 0 0 0 0 0 0 0 0 0 0 0
0 0 0 0 0 0 0 0 1 4 6 11 19 28 33 33 30 30 33 33 27 17 8 3 1 0 0 0 0 0 0 0 0 0 0 0 0 0 0 0 0 0 0 0 0 0 0 0 0
0 0 0 0 0 0 0 0 2 8 15 23 35 48 55 52 42 31 26 23 17 8 3 1 0 0 0 0 0 0 0 0 0 0 0 0 0 0 0 0 0 0 0 0 0 0 0 0 0
0 0 0 0 0 0 0 1 3 9 20 35 51 66 74 71 55 35 21 13 7 2 0 0 0 0 0 1 0 0 0 0 0 0 0 0 0 0 0 0 0 0 0 0 0 0 0 0 0
0 0 0 0 0 0 0 0 1 6 20 42 63 78 86 81 64 40 21 9 3 0 0 0 0 0 0 0 0 0 0 0 0 0 0 0 0 0 0 0 0 0 0 0 0 0 0 0 0
0 0 0 0 0 0 0 0 0 5 21 45 68 82 88 83 67 41 20 9 2 0 0 0 0 0 0 0 0 0 0 0 0 0 0 0 0 0 0 0 0 0 0 0 0 0 0 0 0
0 0 0 0 0 0 0 0 1 8 26 47 61 69 72 67 53 30 13 5 1 0 0 0 0 0 0 0 0 0 0 0 0 0 0 0 0 0 0 0 0 0 0 0 0 0 0 0 0
0 0 0 0 0 0 0 0 1 9 28 45 49 46 42 37 27 13 3 0 0 0 0 0 0 0 0 0 0 0 0 0 0 0 0 0 0 0 0 0 0 0 0 0 0 0 0 0 0
0 0 0 0 0 0 0 0 0 7 25 40 39 27 17 12 8 3 0 0 0 0 0 0 0 0 0 0 0 0 0 0 0 0 0 0 0 0 0 0 0 0 0 0 0 0 0 0 0
0 0 0 0 0 0 0 0 0 4 18 32 28 15 6 2 1 0 0 0 0 0 0 0 0 0 0 0 0 0 0 0 0 0 0 0 0 0 0 0 0 0 0 0 0 0 0 0 0
0 0 0 0 0 0 0 0 0 3 13 19 13 5 1 0 0 0 0 0 0 0 0 0 0 0 0 0 0 0 0 0 0 0 0 0 0 0 0 0 0 0 0 0 0 0 0 0 0
0 0 0 0 0 0 0 0 0 2 7 8 4 0 0 0 0 0 0 0 0 0 0 0 0 0 0 0 0 0 0 0 0 0 0 0 0 0 0 0 0 0 0 0 0 0 0 0 0
0 0 0 0 0 0 0 0 0 1 4 5 2 0 0 0 0 0 0 0 0 0 0 0 0 0 0 0 0 0 0 0 0 0 0 0 0 0 0 0 0 0 0 0 0 0 0 0 0
0 0 0 0 0 0 0 0 0 1 4 5 2 0 0 0 0 0 0 0 0 0 0 0 0 0 0 0 0 0 0 0 0 0 0 0 0 0 0 0 0 0 0 0 0 0 0 0 0
0 0 0 0 0 0 0 0 0 2 5 4 2 0 0 0 0 0 0 0 0 0 0 0 0 0 0 0 0 0 0 0 0 0 0 0 0 0 0 0 0 0 0 0 0 0 0 0 0

GEFSSGP_con_prob3kmehi_018.txt.gz
EHI
0 0 0 0 0 0 0 0 0 0 0 0 0 0 0 0 0 0 0 0 0 0 0 0 0 0 0 0 0 0 0 0 0 0 0 0 0 0 0 0 0 0 0 0 0 0 0 0 0
0 0 0 0 0 0 0 0 0 0 0 0 0 0 0 0 0 0 0 0 0 0 0 0 0 0 0 0 0 0 0 0 0 0 0 0 0 0 0 0 0 0 0 0 0 0 0 0 0
0 0 0 0 0 0 0 0 0 0 0 0 0 0 0 0 0 1 1 0 0 0 0 0 0 0 1 1 0 0 0 0 0 0 0 0 0 0 0 0 0 0 0 0 0 0 0 0 0
0 0 0 0 0 0 0 0 0 0 0 0 0 0 0 0 1 2 2 1 0 0 0 0 0 3 5 6 5 4 3 1 0 0 0 0 0 0 0 0 0 0 0 0 0 0 0 0 0
0 0 0 0 0 0 0 0 0 0 0 1 2 2 1 1 3 4 3 1 0 0 0 0 1 7 16 20 20 18 15 9 3 1 0 0 0 0 0 0 0 0 0 0 0 0 0 0 0
0 0 0 0 0 0 0 0 0 0 1 2 4 4 2 1 3 4 2 1 0 0 0 0 1 10 25 35 37 36 33 23 11 4 2 0 0 0 0 0 0 0 0 0 0 0 0 0 0
0 0 0 0 0 0 0 0 0 0 1 3 6 6 2 1 3 4 2 1 0 0 0 0 1 8 22 35 40 41 38 28 16 8 3 1 0 0 0 0 0 0 0 0 0 0 0 0 0
0 0 0 0 0 0 0 0 0 0 1 2 5 6 5 7 11 10 6 1 0 0 0 0 1 4 10 19 27 30 27 22 14 7 2 0 0 0 0 0 0 0 0 0 0 0 0 0 0
0 0 0 0 0 0 0 0 0 0 1 2 6 12 20 25 24 18 8 2 0 0 0 1 2 3 2 5 10 12 12 11 7 3 0 0 0 0 0 0 0 0 0 0 0 0 0 0 0
0 0 0 0 0 0 0 0 0 0 2 7 19 38 52 46 30 16 6 2 1 1 0 0 1 1 1 0 1 2 3 3 2 0 0 0 0 0 0 0 0 0 0 0 0 0 0 0 0
0 0 0 0 0 0 0 0 0 0 2 13 40 69 76 56 29 12 3 1 1 1 0 0 0 0 0 0 0 0 0 0 0 0 0 0 0 0 0 0 0 0 0 0 0 0 0 0 0
0 0 0 0 0 0 0 0 0 0 3 20 55 84 82 55 27 10 3 1 1 0 0 0 0 0 0 0 0 0 0 0 0 0 0 0 0 0 0 0 0 0 0 0 0 0 0 0 0
0 0 0 0 0 0 0 0 0 1 10 35 67 87 78 51 26 12 5 2 1 0 0 0 0 1 0 0 0 0 0 0 0 0 0 0 0 0 0 0 0 0 0 0 0 0 0 0 0
0 0 0 0 0 0 0 0 0 4 20 52 78 86 74 51 30 17 8 4 1 0 0 0 0 0 0 0 0 0 0 0 0 0 0 0 0 0 0 0 0 0 0 0 0 0 0 0 0
0 0 0 0 0 0 0 0 0 6 27 59 80 85 73 53 34 22 12 7 3 1 1 0 0 0 0 0 0 0 0 0 0 0 0 0 0 0 0 0 0 0 0 0 0 0 0 0 0
0 0 0 0 0 0 0 0 0 6 26 55 76 84 75 56 37 24 15 9 4 3 3 1 0 0 0 0 0 0 0 0 0 0 0 0 0 0 0 0 0 0 0 0 0 0 0 0 0
0 0 0 0 0 0 0 0 0 4 18 41 66 80 77 59 41 27 16 9 5 3 2 1 0 0 0 0 0 0 0 0 0 0 0 0 0 0 0 0 0 0 0 0 0 0 0 0 0
0 0 0 0 0 0 0 0 0 2 8 23 45 67 71 58 40 24 12 7 4 2 1 0 0 0 0 0 0 0 0 0 0 0 0 0 0 0 0 0 0 0 0 0 0 0 0 0 0
0 0 0 0 0 0 0 0 0 1 4 10 24 44 55 48 31 15 7 3 2 0 0 0 0 0 0 0 0 0 0 0 0 0 0 0 0 0 0 0 0 0 0 0 0 0 0 0 0
0 0 0 0 0 0 0 0 0 1 4 7 14 27 37 36 24 10 4 1 0 0 0 0 0 0 0 0 0 0 0 0 0 0 0 0 0 0 0 0 0 0 0 0 0 0 0 0 0
0 0 0 0 0 0 0 0 0 0 3 6 11 18 26 28 21 10 3 1 0 0 0 0 0 0 0 0 0 0 0 0 0 0 0 0 0 0 0 0 0 0 0 0 0 0 0 0 0
0 0 0 0 0 0 0 0 0 0 1 3 9 18 27 29 21 10 3 0 0 0 0 0 0 0 0 0 0 0 0 0 0 0 0 0 0 0 0 0 0 0 0 0 0 0 0 0 0
0 0 0 0 0 0 0 0 0 0 0 3 14 31 42 40 26 11 2 0 0 0 0 0 0 0 0 0 0 0 0 0 0 0 0 0 0 0 0 0 0 0 0 0 0 0 0 0 0
0 0 0 0 0 0 0 0 0 0 0 7 26 49 59 48 28 10 1 0 0 0 0 0 0 0 0 0 0 0 0 0 0 0 0 0 0 0 0 0 0 0 0 0 0 0 0 0 0
0 0 0 0 0 0 0 0 0 0 0 9 34 61 66 47 21 6 0 0 0 0 0 0 0 0 0 0 0 0 0 0 0 0 0 0 0 0 0 0 0 0 0 0 0 0 0 0 0
0 0 0 0 0 0 0 0 0 0 0 9 34 59 60 38 14 2 0 0 0 0 0 0 0 0 0 0 0 0 0 0 0 0 0 0 0 0 0 0 0 0 0 0 0 0 0 0 0
0 0 0 0 0 0 0 0 0 0 1 11 33 51 49 29 9 1 0 0 0 0 0 0 0 0 0 0 0 0 0 0 0 0 0 0 0 0 0 0 0 0 0 0 0 0 0 0 0
0 0 0 0 0 0 0 0 0 0 2 11 27 39 35 18 5 1 0 0 0 0 0 0 0 0 0 0 0 0 0 0 0 0 0 0 0 0 0 0 0 0 0 0 0 0 0 0 0
0 0 0 0 0 0 0 0 0 0 2 6 14 21 19 9 2 0 0 0 0 0 0 0 0 0 0 0 0 0 0 0 0 0 0 0 0 0 0 0 0 0 0 0 0 0 0 0 0
0 0 0 0 0 0 0 0 0 0 1 3 5 8 7 3 0 0 0 0 0 0 0 0 0 0 0 0 0 0 0 0 0 0 0 0 0 0 0 0 0 0 0 0 0 0 0 0 0

GEFSSGP_con_prob3kmehi_024.txt.gz
EHI
0 0 0 0 0 0 0 0 0 0 0 0 0 0 0 0 0 4 7 4 0 0 0 3 7 6 1 0 0 1 2 3 5 6 5 3 1 0 0 0 0 0 0 0 0 0 0 0 0
0 0 0 0 0 0 0 0 0 0 0 0 0 0 0 0 1 5 9 5 1 0 0 4 9 8 2 0 0 1 1 2 2 3 2 1 0 0 0 0 0 0 0 0 0 0 0 0 0
0 0 0 0 0 0 0 0 0 0 0 0 0 0 0 0 2 7 9 6 1 0 0 3 9 9 6 4 4 3 2 1 0 0 0 0 0 0 0 0 0 0 0 0 0 0 0 0 0
0 0 0 0 0 0 0 0 0 0 0 0 0 0 0 1 4 8 9 4 1 0 0 2 5 7 9 11 10 6 3 1 0 0 0 0 0 0 0 0 0 0 0 0 0 0 0 0 0
0 0 0 0 0 0 0 0 0 0 0 0 0 0 0 2 8 11 7 2 0 0 0 0 2 4 7 10 10 6 3 1 0 0 0 0 0 0 0 0 0 0 0 0 0 0 0 0 0
0 0 0 0 0 0 0 0 0 0 0 0 0 0 1 5 12 11 5 0 0 0 0 0 0 1 3 4 6 5 3 1 0 0 0 0 0 0 0 0 0 0 0 0 0 0 0 0 0
0 0 0 0 0 0 0 0 0 0 0 0 0 0 4 12 16 10 2 0 0 0 0 0 0 0 1 1 2 3 2 1 0 0 0 0 0 0 0 0 0 0 0 0 0 0 0 0 0
0 0 0 0 0 0 0 0 0 0 0 0 0 0 9 24 23 9 1 0 0 0 0 0 0 0 0 0 0 1 1 1 0 0 0 0 0 0 0 0 0 0 0 0 0 0 0 0 0
0 0 0 0 0 0 0 0 0 0 0 0 0 0 15 36 33 13 3 1 1 1 0 0 0 0 0 0 0 0 0 1 0 0 0 0 0 0 0 0 0 0 0 0 0 0 0 0 0
0 0 0 0 0 0 0 0 0 0 0 0 1 5 23 43 38 17 6 2 2 2 1 0 0 0 0 0 0 0 0 0 0 0 0 0 0 0 0 0 0 0 0 0 0 0 0 0 0
0 0 0 0 0 0 0 0 0 0 0 1 3 14 37 50 37 16 6 2 1 1 1 0 0 0 0 0 0 0 0 0 0 0 0 0 0 0 0 0 0 0 0 0 0 0 0 0 0
0 0 0 0 0 0 0 0 0 0 1 2 7 25 50 53 31 12 5 2 1 1 1 1 1 1 0 0 0 0 0 0 0 0 0 0 0 0 0 0 0 0 0 0 0 0 0 0 0
0 0 0 0 0 0 0 0 0 0 1 2 10 31 50 45 25 12 8 6 5 4 2 1 2 2 2 1 0 0 0 0 0 0 0 0 0 0 0 0 0 0 0 0 0 0 0 0 0
0 0 0 0 0 0 0 0 0 0 1 3 10 27 40 36 26 25 25 19 14 11 6 3 4 5 6 5 3 2 2 1 1 0 0 0 0 0 0 0 0 0 0 0 0 0 0 0 0
0 0 0 0 0 0 0 0 0 1 2 3 7 18 29 33 36 46 53 45 31 22 15 10 9 15 22 23 18 10 6 3 2 1 1 1 1 0 0 0 0 0 0 0 0 0 0 0 0
0 0 0 0 0 0 0 0 0 1 2 3 5 11 24 36 48 64 76 72 58 44 35 26 23 31 45 50 41 26 15 9 3 1 1 2 1 0 0 0 0 0 0 0 0 0 0 0 0
0 0 0 0 0 0 0 0 0 0 2 3 3 9 24 44 61 76 88 89 82 71 61 50 45 52 60 61 49 32 20 11 4 1 1 1 1 0 0 0 0 0 0 0 0 0 0 0 0
0 0 0 0 0 0 0 0 0 0 2 3 4 10 28 52 72 86 94 95 91 86 81 73 68 66 62 50 35 22 13 6 2 0 0 0 0 0 0 0 0 0 0 0 0 0 0 0 0
0 0 0 0 0 0 0 0 0 0 1 3 4 12 33 60 80 91 94 92 89 88 86 80 73 63 50 35 20 11 5 2 0 0 0 0 0 0 0 0 0 0 0 0 0 0 0 0 0
0 0 0 0 0 0 0 0 0 0 0 1 4 13 35 65 85 90 89 85 83 81 77 71 60 46 32 21 13 7 3 1 0 0 0 0 0 0 0 0 0 0 0 0 0 0 0 0 0
0 0 0 0 0 0 0 0 0 0 0 1 3 10 30 61 83 87 82 77 74 68 60 52 42 30 18 10 6 3 1 0 0 0 0 0 0 0 0 0 0 0 0 0 0 0 0 0 0
0 0 0 0 0 0 0 0 0 0 0 0 2 6 21 49 75 80 72 62 52 44 36 29 22 16 9 4 2 1 0 0 0 0 0 0 0 0 0 0 0 0 0 0 0 0 0 0 0
0 0 0 0 0 0 0 0 0 0 0 0 1 4 15 39 64 67 51 34 24 17 13 10 7 5 3 1 1 0 0 0 0 0 0 0 0 0 0 0 0 0 0 0 0 0 0 0 0
0 0 0 0 0 0 0 0 0 0 0 0 1 6 19 39 53 46 25 10 5 3 2 1 1 1 0 0 0 0 0 0 0 0 0 0 0 0 0 0 0 0 0 0 0 0 0 0 0
0 0 0 0 0 0 0 0 0 0 0 0 1 9 26 45 45 26 9 1 0 0 0 0 0 0 0 0 0 0 0 0 0 0 0 0 0 0 0 0 0 0 0 0 0 0 0 0 0
0 0 0 0 0 0 0 0 0 0 0 0 2 14 37 51 40 17 4 0 0 0 0 0 0 0 0 0 0 0 0 0 0 0 0 0 0 0 0 0 0 0 0 0 0 0 0 0 0
0 0 0 0 0 0 0 0 0 0 0 0 5 24 51 58 38 14 2 0 0 0 0 0 0 0 0 0 0 0 0 0 0 0 0 0 0 0 0 0 0 0 0 0 0 0 0 0 0
0 0 0 0 0 0 0 0 0 0 0 1 8 31 59 62 38 12 2 0 0 0 0 0 0 0 0 0 0 0 0 0 0 0 0 0 0 0 0 0 0 0 0 0 0 0 0 0 0
0 0 0 0 0 0 0 0 0 0 0 1 8 31 58 61 36 10 1 0 0 0 0 0 0 0 0 0 0 0 0 0 0 0 0 0 0 0 0 0 0 0 0 0 0 0 0 0 0
0 0 0 0 0 0 0 0 0 0 0 0 7 29 55 58 33 8 0 0 0 0 0 0 0 0 0 0 0 0 0 0 0 0 0 0 0 0 0 0 0 0 0 0 0 0 0 0 0

GEFSSGP_con_prob3kmehi_030.txt.gz
EHI
0 0 0 0 0 0 0 0 0 0 0 0 0 0 2 5 9 9 16 45 67 48 20 22 25 14 4 1 0 0 0 0 0 0 0 0 0 0 0 0 0 0 0 0 0 0 0 0 0
0 0 0 0 0 0 0 0 0 0 0 0 0 0 1 2 6 11 23 47 58 36 13 12 13 7 2 0 0 0 0 0 0 0 0 0 0 0 0 0 0 0 0 0 0 0 0 0 0
0 0 0 0 0 0 0 0 0 0 0 0 0 0 0 2 10 21 31 42 42 25 10 6 3 1 0 0 0 0 0 0 0 0 0 0 0 0 0 0 0 0 0 0 0 0 0 0 0
0 0 0 0 0 0 0 0 0 0 0 0 0 0 1 10 26 35 29 26 25 22 16 8 2 1 0 0 0 0 0 0 0 0 0 0 0 0 0 0 0 0 0 0 0 0 0 0 0
0 0 0 0 0 0 0 0 0 0 0 0 0 0 5 22 40 36 19 11 15 25 24 11 4 3 1 0 0 0 0 0 0 0 0 0 0 0 0 0 0 0 0 0 0 0 0 0 0
0 0 0 0 0 0 0 0 0 0 1 0 0 0 9 29 38 26 10 5 15 34 32 13 4 4 3 2 1 1 0 0 0 0 0 0 0 0 0 0 0 0 0 0 0 0 0 0 0
0 0 0 0 0 0 0 0 0 0 0 0 0 1 12 27 29 17 6 5 19 39 34 12 4 5 5 5 4 2 1 1 0 0 0 0 0 0 0 0 0 0 0 0 0 0 0 0 0
0 0 0 0 0 0 0 0 0 0 0 0 0 2 15 28 25 12 5 5 20 37 32 14 7 7 6 6 6 4 2 1 0 0 0 0 0 0 0 0 0 0 0 0 0 0 0 0 0
0 0 0 0 0 0 0 0 0 0 0 0 1 6 20 28 21 11 8 10 22 34 33 27 23 15 7 6 6 4 1 0 0 0 0 0 0 0 0 0 0 0 0 0 0 0 0 0 0
0 0 0 0 0 0 0 0 0 0 0 0 4 14 25 25 17 13 14 17 25 29 32 42 42 27 19 18 10 2 1 1 0 0 0 0 0 1 1 1 1 0 0 0 0 0 0 0 0
0 0 0 0 0 0 0 0 0 0 0 1 8 19 26 23 16 14 19 24 27 23 25 44 47 32 32 32 15 5 4 3 2 2 2 1 1 2 3 3 2 1 1 0 0 0 0 0 0
0 0 0 0 0 0 0 0 0 0 0 2 8 17 23 22 16 14 21 31 34 27 24 40 50 44 48 45 23 12 11 8 8 7 4 3 3 4 5 5 3 2 1 0 0 0 0 0 0
0 0 0 0 0 0 0 0 0 0 1 1 6 14 19 21 18 16 25 40 51 47 41 51 68 72 74 65 41 28 30 27 25 19 11 8 12 17 18 15 8 5 6 6 5 4 4 2 2
0 0 0 0 0 0 0 0 0 0 0 0 4 10 17 21 20 22 36 57 73 75 70 75 87 93 94 82 60 53 55 55 50 43 28 17 22 34 35 29 23 20 20 17 12 12 11 9 7
0 0 0 0 0 0 0 0 0 0 0 0 2 7 15 20 22 29 49 75 90 93 92 92 96 98 98 87 75 71 72 72 73 67 49 28 27 35 38 39 43 41 33 24 19 17 18 17 16
0 0 0 0 0 0 0 0 0 0 0 0 1 5 11 17 22 35 61 86 97 99 99 97 97 99 98 92 86 82 81 84 86 79 60 37 26 26 33 46 52 45 33 27 22 18 19 20 18
0 0 0 0 0 0 0 0 0 0 0 0 1 3 7 12 23 43 71 92 98 99 100 99 99 100 99 97 95 91 90 90 87 78 61 41 26 23 31 42 41 31 26 24 19 15 14 12 11
0 0 0 0 0 0 0 0 0 0 0 0 1 2 4 10 26 51 78 94 99 100 100 100 100 100 100 99 96 91 86 82 75 66 54 38 25 19 22 25 22 15 14 14 11 6 5 3 2
0 0 0 0 0 0 0 0 0 0 0 0 0 1 4 12 31 58 83 96 100 100 100 100 100 100 99 98 94 87 78 69 59 47 37 27 17 12 11 11 8 5 4 4 3 1 0 0 0
0 0 0 0 0 0 0 0 0 0 0 0 0 1 3 15 38 66 87 97 100 100 100 100 100 100 98 95 89 81 68 53 39 27 18 13 8 5 4 4 2 1 0 0 0 0 0 0 0
0 0 0 0 0 0 0 0 0 0 0 0 0 0 2 15 41 70 89 97 99 100 100 100 99 97 93 87 77 64 49 33 22 14 9 5 3 1 1 1 0 0 0 0 0 0 0 0 0
0 0 0 0 0 0 0 0 0 0 0 0 0 0 1 11 36 67 88 97 99 99 98 96 93 88 79 71 59 45 31 21 13 9 7 4 2 0 0 0 0 0 0 0 0 0 0 0 0
0 0 0 0 0 0 0 0 0 0 0 0 0 0 1 10 33 65 89 97 96 94 91 85 77 68 59 51 43 34 25 17 11 8 5 3 1 0 0 0 0 0 0 0 0 0 0 0 0
0 0 0 0 0 0 0 0 0 0 0 0 0 1 5 17 43 74 93 96 90 81 72 64 54 44 36 30 27 24 19 13 9 6 3 1 0 0 0 0 0 0 0 0 0 0 0 0 0
0 0 0 0 0 0 0 0 0 0 0 0 1 4 15 34 62 85 93 88 74 59 47 37 30 23 18 15 13 12 10 7 5 3 1 0 0 0 0 0 0 0 0 0 0 0 0 0 0
0 0 0 0 0 0 0 0 0 0 0 0 2 9 25 49 73 87 83 68 51 36 24 16 12 10 8 7 6 5 5 4 2 1 0 0 0 0 0 0 0 0 0 0 0 0 0 0 0
0 0 0 0 0 0 0 0 0 0 0 0 1 9 28 53 74 80 65 45 30 19 10 6 4 3 4 4 3 3 2 1 1 0 0 0 0 0 0 0 0 0 0 0 0 0 0 0 0
0 0 0 0 0 0 0 0 0 0 0 0 1 8 28 54 71 69 50 30 18 9 4 2 1 1 2 2 1 1 1 0 0 0 0 0 0 0 0 0 0 0 0 0 0 0 0 0 0
0 0 0 0 0 0 0 0 0 0 0 0 2 11 33 57 69 61 41 22 11 5 1 0 0 0 1 1 0 0 0 0 0 0 0 0 0 0 0 0 0 0 0 0 0 0 0 0 0
0 0 0 0 0 0 0 0 0 0 0 0 3 15 39 61 67 55 35 17 7 2 0 0 0 0 0 0 0 0 0 0 0 0 0 0 0 0 0 0 0 0 0 0 0 0 0 0 0

GEFSSGP_con_prob3kmehi_036.txt.gz
EHI
0 0 0 0 0 0 0 0 0 0 0 0 2 7 9 5 2 1 1 1 6 14 30 60 83 84 74 62 43 23 9 3 1 0 0 0 1 2 2 1 0 0 0 0 0 0 0 0 0
0 0 0 0 0 0 0 0 0 0 0 0 1 3 5 5 4 3 1 1 6 12 23 50 76 78 65 52 36 19 7 2 0 0 0 0 0 1 1 0 0 0 0 0 0 0 0 0 0
0 0 0 0 0 0 0 0 0 0 0 0 0 1 2 5 8 7 2 0 3 5 12 35 61 63 47 33 21 11 4 1 0 0 0 0 0 0 0 0 0 0 0 0 0 0 0 0 0
0 0 0 0 0 0 0 0 0 0 0 2 5 5 2 11 24 21 7 0 0 1 5 21 40 42 30 19 12 6 2 1 0 0 0 0 0 0 0 0 0 0 0 0 0 0 0 0 0
0 0 0 0 0 0 0 0 0 0 2 9 14 10 7 27 52 42 13 0 0 0 1 10 23 27 23 19 14 8 4 2 1 0 0 0 0 0 0 0 0 0 0 0 0 0 0 0 0
0 0 0 0 0 0 0 0 0 0 3 12 18 12 11 39 64 49 15 1 0 0 0 5 12 19 24 27 24 15 8 4 2 1 0 0 0 0 0 0 0 0 0 0 0 0 0 0 0
0 0 0 0 0 0 0 0 0 0 2 8 15 13 11 30 50 43 21 8 3 1 1 3 6 13 23 31 30 21 11 5 2 1 0 0 0 0 0 0 0 0 0 0 0 0 0 0 0
0 0 0 0 0 0 0 0 0 0 0 3 9 10 7 16 37 48 43 27 11 4 3 5 7 11 18 25 26 20 10 4 1 0 0 0 0 0 0 0 0 0 0 0 0 0 0 0 0
0 0 0 0 0 0 0 0 0 0 2 6 9 9 6 13 36 62 71 57 32 15 8 8 11 13 15 17 16 12 6 2 0 0 0 0 0 0 0 0 0 0 0 0 0 0 0 0 0
0 0 0 0 0 0 0 0 0 1 6 14 18 16 14 17 36 66 85 81 60 35 17 12 15 17 16 13 9 5 2 0 0 0 0 0 0 0 0 0 0 0 0 0 0 0 0 0 0
0 0 0 0 0 0 0 0 0 1 6 19 30 31 26 24 36 61 85 91 79 56 35 24 21 20 16 11 7 3 0 0 0 0 0 0 0 0 0 0 0 0 0 0 0 0 0 0 0
0 0 0 0 0 0 0 0 0 1 6 20 37 43 38 34 40 57 77 87 84 71 56 45 37 27 18 11 7 2 0 0 0 0 0 0 0 0 0 0 0 0 0 0 0 0 0 0 0
0 0 0 0 0 0 0 0 0 2 8 21 40 48 43 38 40 50 66 80 85 81 75 68 58 42 26 16 8 2 0 0 0 0 0 0 0 0 0 0 0 0 0 0 0 0 0 0 0
0 0 0 0 0 0 0 0 0 2 8 21 37 45 40 36 39 46 59 75 84 85 86 86 77 61 42 26 13 5 3 2 1 0 0 0 0 0 0 0 0 0 0 0 0 0 0 0 0
0 0 0 0 0 0 0 0 0 2 7 17 28 35 33 30 37 48 59 72 81 85 89 92 89 77 61 41 24 16 14 11 6 2 1 1 0 0 0 0 0 0 0 0 0 0 0 0 0
0 0 0 0 0 0 0 0 0 1 6 11 18 24 23 21 29 42 54 67 80 85 88 93 94 89 77 59 41 34 33 28 17 6 2 1 1 0 0 0 0 0 0 0 0 0 0 0 0
0 0 0 0 0 0 0 0 0 1 4 8 12 17 17 14 18 29 44 63 78 85 88 92 96 94 87 74 59 51 48 39 23 9 3 3 2 0 0 0 0 0 0 0 0 0 0 0 0
0 0 0 0 0 0 0 0 0 0 1 4 8 12 14 12 13 23 39 59 76 83 86 91 95 95 90 80 69 59 49 36 21 9 5 4 2 0 0 0 0 0 0 0 0 0 0 0 0
0 0 0 0 0 0 0 0 0 0 0 1 3 6 9 11 15 26 41 59 75 82 85 90 94 93 89 81 69 55 41 27 15 7 3 2 1 0 0 0 0 0 0 0 0 0 0 0 0
0 0 0 0 0 0 0 0 0 0 0 0 1 2 6 12 19 30 47 64 78 85 88 92 94 91 85 75 60 42 26 16 8 3 1 1 0 0 0 0 0 0 0 0 0 0 0 0 0
0 0 0 0 0 0 0 0 0 0 0 0 0 2 8 17 27 39 56 73 84 89 92 94 92 86 76 63 46 30 17 7 2 0 0 0 0 0 0 0 0 0 0 0 0 0 0 0 0
0 0 0 0 0 0 0 0 0 0 0 0 0 2 11 25 38 51 66 79 88 93 95 92 83 73 62 48 36 25 14 4 0 0 0 0 0 0 0 0 0 0 0 0 0 0 0 0 0
0 0 0 0 0 0 0 0 0 0 0 0 1 4 14 30 48 63 76 86 93 95 91 82 70 59 47 34 25 18 9 2 0 0 0 0 0 0 0 0 0 0 0 0 0 0 0 0 0
0 0 0 0 0 0 0 0 0 0 0 1 4 12 23 39 60 77 88 94 95 91 80 67 55 43 31 21 13 8 4 1 0 0 0 0 0 0 0 0 0 0 0 0 0 0 0 0 0
0 0 0 0 0 0 0 0 0 2 4 6 13 27 42 58 74 87 92 92 88 77 62 48 36 24 16 11 6 2 1 0 0 0 0 0 0 0 0 0 0 0 0 0 0 0 0 0 0
0 0 0 0 0 0 0 0 1 5 12 18 28 45 61 73 81 82 81 77 67 53 38 27 18 11 7 5 2 0 0 0 0 0 0 0 0 0 0 0 0 0 0 0 0 0 0 0 0
0 0 0 0 0 0 0 0 1 5 16 26 37 50 61 68 69 63 56 49 38 25 16 11 8 5 3 2 1 0 0 0 0 0 0 0 0 0 0 0 0 0 0 0 0 0 0 0 0
0 0 0 0 0 0 0 0 0 3 10 21 31 38 43 46 44 37 29 21 14 7 4 3 2 2 1 1 0 0 0 0 0 0 0 0 0 0 0 0 0 0 0 0 0 0 0 0 0
0 0 0 0 0 0 0 0 0 1 5 14 21 24 24 24 20 14 10 6 3 1 0 0 0 0 0 0 0 0 0 0 0 0 0 0 0 0 0 0 0 0 0 0 0 0 0 0 0
0 0 0 0 0 0 0 0 1 2 5 12 17 18 16 12 8 5 3 2 1 0 0 0 0 0 0 0 0 0 0 0 0 0 0 0 0 0 0 0 0 0 0 0 0 0 0 0 0

GEFSSGP_con_prob3kmehi_042.txt.gz
EHI
0 0 0 0 0 0 0 0 0 0 0 0 0 0 1 1 0 0 0 0 4 13 24 47 72 84 86 84 76 65 53 48 50 55 57 59 61 62 55 41 26 12 3 0 0 0 0 0 0
0 0 0 0 0 0 0 0 0 0 0 0 0 0 1 1 0 0 0 1 6 13 20 40 70 86 88 85 77 63 46 34 31 34 35 36 38 38 32 21 11 5 1 0 0 0 0 0 0
0 0 0 0 0 0 0 0 0 0 0 0 1 1 1 1 0 0 0 3 9 11 14 35 68 86 89 86 76 60 40 22 14 12 11 11 11 11 8 4 1 0 0 0 0 0 0 0 0
0 0 0 0 0 0 0 0 0 0 0 1 2 1 0 0 0 0 1 5 10 10 12 35 67 83 84 80 69 53 35 20 9 4 1 1 1 1 1 0 0 0 0 0 0 0 0 0 0
0 0 0 0 0 0 0 0 0 0 0 1 2 1 0 0 0 1 2 5 10 11 14 34 63 76 73 65 52 39 28 17 9 3 0 0 0 0 0 0 0 0 0 0 0 0 0 0 0
0 0 0 0 0 0 0 0 0 0 0 1 1 0 0 1 1 1 1 4 8 14 17 26 44 56 56 49 38 28 21 14 7 2 0 0 0 0 0 0 0 0 0 0 0 0 0 0 0
0 0 0 0 0 0 0 0 0 0 1 2 3 3 2 1 0 0 1 2 6 12 15 14 18 27 35 36 31 25 20 13 6 2 0 0 1 0 0 0 0 0 0 0 0 0 0 0 0
0 0 0 0 0 0 0 0 0 1 1 3 5 4 2 1 1 2 2 1 2 6 7 5 5 9 16 23 26 25 20 12 6 2 0 0 0 0 0 0 0 0 0 0 0 0 0 0 0
0 0 0 0 0 0 0 0 1 2 2 2 3 4 7 10 9 6 4 2 1 1 2 3 4 6 10 16 20 20 15 9 4 1 0 0 0 0 0 0 0 0 0 0 0 0 0 0 0
0 0 0 0 0 0 0 0 1 2 2 1 3 12 27 33 23 12 6 2 0 1 2 4 5 9 13 16 16 15 10 5 2 0 0 0 0 0 0 0 0 0 0 0 0 0 0 0 0
0 0 0 0 0 0 0 0 0 1 1 2 11 32 56 58 38 21 11 4 0 1 2 4 6 11 17 18 17 14 8 4 1 0 0 0 0 0 0 0 0 0 0 0 0 0 0 0 0
0 0 0 0 0 0 0 0 0 0 0 2 18 49 74 71 48 28 18 9 2 0 1 3 6 12 17 18 19 17 10 5 2 1 0 0 0 0 0 0 0 0 0 0 0 0 0 0 0
0 0 0 0 0 0 0 0 0 0 0 3 22 54 77 75 53 34 25 17 9 4 1 2 6 11 16 18 19 17 11 5 3 1 0 0 0 0 0 0 0 0 0 0 0 0 0 0 0
0 0 0 0 0 0 0 0 0 0 0 5 24 51 70 71 59 45 36 31 24 14 6 3 6 10 15 19 20 17 10 5 3 1 0 0 0 0 0 0 0 0 0 0 0 0 0 0 0
0 0 0 0 0 0 0 0 0 0 0 6 22 43 57 61 60 55 49 45 40 31 18 10 10 13 17 20 21 16 10 6 4 2 0 0 0 0 0 0 0 0 0 0 0 0 0 0 0
0 0 0 0 0 0 0 0 0 0 0 4 14 30 41 45 48 51 52 51 50 48 39 28 23 23 24 23 21 17 11 7 5 3 1 0 0 0 0 0 0 0 0 0 0 0 0 0 0
0 0 0 0 0 0 0 0 0 0 0 1 7 18 27 31 33 36 42 48 55 61 59 53 47 43 39 33 25 17 11 7 4 3 1 0 0 0 0 0 0 0 0 0 0 0 0 0 0
0 0 0 0 0 0 0 0 0 0 0 0 3 9 15 20 22 23 28 39 53 67 74 74 72 66 59 50 36 23 14 9 5 3 2 1 1 0 0 0 0 0 0 0 0 0 0 0 0
0 0 0 0 0 0 0 0 0 0 0 0 1 3 7 12 14 15 17 27 45 65 79 86 86 82 75 66 51 32 19 11 6 4 2 2 2 1 0 0 0 0 0 0 0 0 0 0 0
0 0 0 0 0 0 0 0 0 0 0 0 0 0 2 5 8 9 11 19 35 55 75 86 90 86 77 66 50 31 17 9 4 3 2 1 2 1 0 0 0 0 0 0 0 0 0 0 0
0 0 0 0 0 0 0 0 0 0 0 0 1 1 1 2 4 5 8 14 26 43 64 79 82 75 64 51 36 22 11 5 2 1 1 0 1 1 0 0 0 0 0 0 0 0 0 0 0
0 0 0 0 0 0 0 0 0 0 0 1 2 2 1 1 2 3 6 11 21 34 50 63 65 56 45 35 25 15 8 4 1 0 0 0 0 0 0 0 0 0 0 0 0 0 0 0 0
0 0 0 0 0 0 0 0 0 0 1 2 3 2 1 3 4 6 8 11 17 27 37 43 43 35 28 23 16 9 5 2 1 0 0 0 0 0 0 0 0 0 0 0 0 0 0 0 0
0 0 0 0 0 0 0 0 0 0 1 3 3 2 4 8 12 15 17 18 19 24 28 28 24 19 16 12 7 3 1 0 0 0 0 0 0 0 0 0 0 0 0 0 0 0 0 0 0
0 0 0 0 0 0 0 0 0 0 2 4 5 5 9 15 20 24 26 24 21 20 20 16 11 8 7 4 2 0 0 0 0 0 0 0 0 0 0 0 0 0 0 0 0 0 0 0 0
0 0 0 0 0 0 0 0 0 1 4 8 11 12 16 21 23 24 22 20 16 13 10 7 4 3 2 1 0 0 0 0 0 0 0 0 0 0 0 0 0 0 0 0 0 0 0 0 0
0 0 0 0 0 0 0 0 0 0 4 11 16 19 21 22 19 15 12 10 9 6 3 2 1 1 0 0 0 0 0 0 0 0 0 0 0 0 0 0 0 0 0 0 0 0 0 0 0
0 0 0 0 0 0 0 0 0 0 4 11 17 19 20 16 11 7 5 5 4 2 0 0 0 0 0 0 0 0 0 0 0 0 0 0 0 0 0 0 0 0 0 0 0 0 0 0 0
0 0 0 0 0 0 0 0 0 1 4 9 12 13 12 9 6 4 2 1 1 0 0 0 0 0 0 0 0 0 0 0 0 0 0 0 0 0 0 0 0 0 0 0 0 0 0 0 0
0 0 0 0 0 0 0 0 0 1 3 6 7 8 8 6 4 3 1 0 0 0 0 0 0 0 0 0 0 0 0 0 0 0 0 0 0 0 0 0 0 0 0 0 0 0 0 0 0

GEFSSGP_con_prob3kmehi_048.txt.gz
EHI
0 0 0 0 0 0 0 0 0 0 0 0 0 0 0 0 0 1 1 3 13 27 27 13 6 6 5 11 34 63 81 88 89 89 89 87 86 85 76 62 46 30 15 4 0 0 0 0 0
0 0 0 0 0 0 0 0 0 0 0 0 0 0 0 0 0 1 1 4 12 21 22 15 12 11 8 13 32 57 74 81 84 86 85 83 81 77 66 47 30 18 9 2 0 0 0 0 0
0 0 0 0 0 0 0 0 0 0 0 0 0 0 0 0 0 1 2 5 9 12 15 22 25 19 15 16 27 45 57 64 70 75 75 72 66 58 46 28 14 7 2 0 0 0 0 0 0
0 0 0 0 0 0 0 0 0 0 0 0 0 0 0 0 0 2 4 6 7 6 11 26 36 32 24 21 23 30 37 43 51 58 59 54 47 39 27 14 6 2 0 0 0 0 0 0 0
0 0 0 0 0 0 0 0 0 0 0 0 0 0 1 2 4 5 6 6 5 4 9 25 39 41 33 27 23 22 24 30 38 43 42 38 33 25 15 6 1 0 0 0 0 0 0 0 0
0 0 0 0 0 0 0 0 0 0 0 0 0 0 3 8 10 8 7 5 4 3 8 20 32 35 32 28 25 21 19 24 29 30 28 24 20 14 7 2 1 1 0 0 0 0 0 0 0
0 0 0 0 0 0 0 0 0 0 0 0 0 0 5 15 18 12 7 4 3 3 5 11 16 18 19 21 21 18 16 17 19 19 16 13 9 6 3 1 1 1 0 0 0 0 0 0 0
0 0 0 0 0 0 0 0 0 0 0 0 0 0 9 25 29 20 11 5 1 1 2 4 5 6 7 9 12 12 11 12 12 11 8 5 3 2 2 1 1 1 0 0 0 0 0 0 0
0 0 0 0 0 0 0 0 0 0 0 0 0 1 15 37 45 34 21 11 4 2 1 1 2 3 2 2 4 7 7 7 6 5 4 2 1 1 3 4 3 1 0 0 0 0 0 0 0
0 0 0 0 0 0 0 0 0 0 0 0 0 3 19 43 53 45 32 20 10 4 2 1 1 2 1 1 2 2 2 2 2 2 2 1 0 0 3 6 4 1 0 0 0 0 0 0 0
0 0 0 0 0 0 0 0 0 0 0 0 0 5 21 40 47 43 34 23 12 5 2 1 0 0 0 0 0 0 0 0 0 1 2 1 0 0 2 3 2 0 0 0 0 0 0 0 0
0 0 0 0 0 0 0 0 0 0 0 0 0 5 19 30 35 34 27 18 10 5 3 1 1 1 1 1 0 0 0 0 1 1 1 0 0 0 0 0 0 0 0 0 0 0 0 0 0
0 0 0 0 0 0 0 0 0 0 0 0 0 4 12 19 22 23 20 16 11 8 6 4 4 6 6 6 4 3 2 3 4 3 2 0 0 0 1 1 2 1 0 0 0 0 0 0 0
0 0 0 0 0 0 0 0 0 0 0 0 0 2 6 10 12 16 21 22 20 17 14 11 12 15 16 15 11 7 6 7 8 7 6 3 2 3 5 6 6 5 2 1 1 0 0 0 0
0 0 0 0 0 0 0 0 0 0 0 0 0 1 2 5 8 14 23 31 32 30 29 24 22 27 31 29 23 16 13 13 13 13 12 9 7 9 12 13 12 10 7 5 4 2 1 0 0
0 0 0 0 0 0 0 0 0 0 0 0 0 0 1 2 6 12 21 33 43 48 50 45 39 43 49 49 42 34 30 29 25 23 21 17 15 17 20 22 22 20 16 13 10 6 2 0 0
0 0 0 0 0 0 0 0 0 0 0 0 0 0 1 2 5 10 18 32 49 63 68 66 63 64 69 69 63 56 53 48 40 34 30 26 24 25 27 29 27 26 23 18 13 8 5 3 2
0 0 0 0 0 0 0 0 0 0 0 0 0 1 2 3 5 9 16 30 51 69 78 79 81 83 84 84 80 74 68 58 47 40 36 32 30 28 28 25 21 21 20 15 11 9 7 6 6
0 0 0 0 0 0 0 0 0 0 0 1 2 4 6 7 9 10 15 27 47 68 81 86 90 94 94 93 90 83 73 60 47 39 34 30 26 23 18 15 13 13 11 9 7 6 5 4 4
0 0 0 0 0 0 0 0 0 0 1 4 7 10 13 15 15 15 18 26 41 61 76 86 94 98 97 96 91 81 68 54 42 33 26 21 18 14 9 7 8 8 5 4 3 2 1 1 1
0 0 0 0 0 0 0 0 0 0 3 9 17 24 28 28 26 25 26 32 44 57 67 78 90 96 95 91 84 72 57 44 33 24 17 12 9 7 4 3 3 3 2 1 1 0 0 0 0
0 0 0 0 0 0 0 0 0 1 5 17 32 43 46 45 40 36 37 44 54 62 68 75 84 89 87 82 74 62 48 35 24 16 10 5 3 2 1 0 1 1 0 0 0 0 0 0 0
0 0 0 0 0 0 0 0 0 1 7 22 43 53 54 53 48 44 45 52 61 68 72 74 76 74 69 65 59 50 38 26 16 8 4 1 0 0 0 0 0 0 0 0 0 0 0 0 0
0 0 0 0 0 0 0 0 1 4 11 24 38 47 47 45 43 43 45 50 57 64 66 63 57 51 46 43 40 33 26 16 6 2 1 0 0 0 0 0 0 0 0 0 0 0 0 0 0
0 0 0 0 0 0 0 0 3 9 16 21 28 31 31 30 30 31 35 37 40 46 46 40 33 28 25 24 21 18 12 6 1 0 0 0 0 0 0 0 0 0 0 0 0 0 0 0 0
0 0 0 0 0 0 0 1 4 11 17 19 19 17 14 15 15 15 17 20 22 24 23 19 16 13 12 11 8 6 3 1 0 0 0 0 0 0 0 0 0 0 0 0 0 0 0 0 0
0 0 0 0 0 0 0 1 3 8 13 16 14 10 6 5 6 5 6 8 9 9 8 7 6 5 4 3 2 1 1 0 0 0 0 0 0 0 0 0 0 0 0 0 0 0 0 0 0
0 0 0 0 0 0 0 0 2 7 13 13 11 8 4 1 1 1 2 3 3 2 2 2 1 1 0 0 0 0 0 0 0 0 0 0 0 0 0 0 0 0 0 0 0 0 0 0 0
0 0 0 0 0 0 0 0 4 14 18 14 9 6 3 1 0 0 1 1 1 0 0 0 0 0 0 0 0 0 0 0 0 0 0 0 0 0 0 0 0 0 0 0 0 0 0 0 0
0 0 0 0 0 0 0 0 6 19 24 16 8 5 3 1 0 0 0 0 0 0 0 0 0 0 0 0 0 0 0 0 0 0 0 0 0 0 0 0 0 0 0 0 0 0 0 0 0

GEFSSGP_con_prob3kmehi_054.txt.gz
EHI
0 0 0 0 0 0 0 0 0 0 0 0 0 0 0 0 0 0 6 35 71 69 48 46 42 24 9 2 0 0 0 0 1 2 3 4 7 15 20 17 12 6 1 0 0 0 0 0 0
0 0 0 0 0 0 0 0 0 0 0 0 0 0 0 0 1 2 15 49 72 57 33 33 34 22 10 3 0 0 1 1 3 7 10 11 14 19 19 13 7 4 1 0 0 0 0 0 0
0 0 0 0 0 0 0 0 0 0 0 0 0 0 0 1 3 9 28 59 68 43 20 24 27 19 9 3 1 1 2 4 9 17 23 26 27 26 19 9 3 1 0 0 0 0 0 0 0
0 0 0 0 0 0 0 0 0 0 0 0 0 2 3 3 8 19 34 54 55 31 15 18 22 15 7 3 1 1 3 8 16 27 36 40 39 30 17 6 2 1 0 0 0 0 0 0 0
0 0 0 0 0 0 0 0 0 0 0 0 1 4 6 8 15 22 29 39 37 24 14 14 18 14 6 2 1 1 3 9 19 29 39 43 40 29 13 3 1 1 0 0 0 0 0 0 0
0 0 0 0 0 0 0 0 0 0 0 0 1 4 8 11 14 15 17 21 25 30 25 17 14 11 4 1 0 1 3 8 15 22 29 34 31 21 9 2 1 1 1 0 0 0 0 0 0
0 0 0 0 0 0 0 0 0 0 0 0 1 5 11 14 11 7 8 11 20 36 35 18 9 6 2 0 0 0 1 5 8 11 15 19 17 10 5 3 3 3 2 0 0 0 0 0 0
0 0 0 0 0 0 0 0 0 0 0 0 1 6 14 17 10 5 6 9 18 36 37 18 4 2 0 0 0 1 1 2 3 4 5 6 5 3 2 4 7 7 3 0 0 0 0 0 0
0 0 0 0 0 0 0 0 0 0 0 0 1 8 16 16 9 5 7 9 16 30 33 20 8 4 1 1 2 2 2 1 1 1 0 1 1 1 4 13 22 17 7 3 1 0 0 0 0
0 0 0 0 0 0 0 0 0 0 0 0 2 10 17 14 8 5 6 10 14 20 25 26 21 11 4 7 9 5 2 3 1 0 1 1 1 5 13 29 38 27 13 6 4 2 0 0 0
0 0 0 0 0 0 0 0 0 0 0 0 3 12 18 13 6 4 6 8 10 12 17 30 35 21 11 17 17 7 5 7 5 5 7 5 4 10 22 35 38 27 14 8 6 4 1 0 0
0 0 0 0 0 0 0 0 0 0 0 0 3 12 18 11 5 5 7 9 12 12 14 30 47 39 29 34 28 13 11 14 15 18 21 15 12 16 25 33 31 22 14 12 10 8 5 2 1
0 0 0 0 0 0 0 0 0 0 0 0 3 11 14 10 6 7 11 16 22 24 19 31 58 64 59 60 49 29 25 29 34 39 37 29 26 31 38 42 38 29 27 27 22 16 12 8 6
0 0 0 0 0 0 0 0 0 0 0 0 1 6 9 8 7 8 16 29 42 46 40 47 72 86 86 82 70 54 46 48 54 59 58 50 49 58 64 64 57 50 50 48 39 30 24 17 13
0 0 0 0 0 0 0 0 0 0 0 0 0 2 5 7 8 11 24 46 64 70 70 72 83 94 96 90 82 70 62 63 69 74 79 75 73 80 84 80 73 68 67 64 53 43 35 26 20
0 0 0 0 0 0 0 0 0 0 0 0 1 2 4 7 10 16 34 62 81 87 90 90 90 95 98 95 88 79 74 77 82 86 91 89 85 86 87 84 78 75 72 65 53 42 33 26 22
0 0 0 0 0 0 0 0 0 0 0 1 2 4 5 7 12 21 40 69 88 95 98 97 95 97 99 98 94 89 88 89 91 91 91 87 82 80 79 77 74 69 64 53 40 29 22 17 14
0 0 0 0 0 0 0 0 0 0 0 2 4 5 7 10 16 25 43 70 89 96 99 99 98 99 100 100 99 97 96 94 90 86 83 78 72 68 66 63 59 55 48 37 26 16 11 7 6
0 0 0 0 0 0 0 0 0 0 2 4 6 7 10 18 25 34 50 73 89 95 98 100 99 99 100 100 100 98 96 92 85 76 70 66 61 56 51 46 42 39 34 25 15 8 3 2 1
0 0 0 0 0 0 0 0 0 2 5 7 9 14 22 31 40 48 61 78 91 96 97 97 98 99 99 99 99 96 91 85 75 63 56 52 49 45 38 32 28 26 23 16 8 3 0 0 0
0 0 0 0 0 0 0 0 1 3 8 14 21 31 39 46 53 60 67 78 90 95 94 94 95 97 97 97 96 92 83 73 64 53 44 39 36 31 26 20 18 16 14 9 4 1 0 0 0
0 0 0 0 0 0 0 0 1 4 12 25 41 53 57 58 62 66 68 75 84 89 91 91 91 93 94 94 92 85 73 62 54 44 35 28 23 16 12 10 9 8 6 3 1 0 0 0 0
0 0 0 0 0 0 0 0 2 8 22 42 59 66 65 61 61 61 61 65 72 78 81 83 83 83 83 82 79 72 60 50 43 34 24 16 11 6 3 3 3 2 1 0 0 0 0 0 0
0 0 0 0 0 0 0 1 9 25 45 62 69 65 58 51 47 44 44 48 54 59 62 65 65 64 62 60 57 51 44 37 31 24 13 6 3 1 1 0 0 0 0 0 0 0 0 0 0
0 0 0 0 0 0 0 5 25 53 71 72 62 49 38 31 27 25 26 29 33 36 38 39 39 37 36 35 33 31 27 22 18 14 7 2 1 0 0 0 0 0 0 0 0 0 0 0 0
0 0 0 0 0 0 3 17 47 73 78 65 45 29 20 15 13 12 13 14 15 15 17 17 16 16 15 15 14 13 11 9 7 5 3 1 0 0 0 0 0 0 0 0 0 0 0 0 0
0 0 0 0 0 0 6 28 57 73 67 49 30 16 9 7 5 4 4 4 4 4 4 5 5 5 4 3 3 3 2 1 1 1 1 0 0 0 0 0 0 0 0 0 0 0 0 0 0
0 0 0 0 0 0 5 23 49 63 54 34 20 9 4 3 2 1 1 1 1 1 0 1 1 1 1 0 0 0 0 0 0 0 0 0 0 0 0 0 0 0 0 0 0 0 0 0 0
0 0 0 0 0 0 2 13 37 53 42 23 11 4 1 1 0 0 0 0 0 0 0 0 0 0 0 0 0 0 0 0 0 0 0 0 0 0 0 0 0 0 0 0 0 0 0 0 0
0 0 0 0 0 0 2 12 35 46 34 16 6 2 0 0 0 0 0 0 0 0 0 0 0 0 0 0 0 0 0 0 0 0 0 0 0 0 0 0 0 0 0 0 0 0 0 0 0

GEFSSGP_con_prob3kmehi_060.txt.gz
EHI
0 0 0 0 0 0 0 0 0 0 0 0 0 0 0 0 0 0 0 9 29 44 46 58 77 83 79 68 53 36 23 18 19 18 15 14 16 17 18 18 16 11 5 1 0 0 0 0 0
0 0 0 0 0 0 0 0 0 0 0 0 0 0 0 1 1 1 1 12 36 48 47 56 74 79 73 60 44 27 16 13 13 12 9 8 8 9 10 10 8 6 2 0 0 0 0 0 0
0 0 0 0 0 0 0 0 0 0 0 0 0 0 0 2 4 2 3 16 36 44 44 54 70 74 66 51 34 20 11 8 7 5 3 2 2 3 3 2 1 1 0 0 0 0 0 0 0
0 0 0 0 0 0 0 0 0 0 0 0 1 2 2 9 16 14 10 17 29 35 38 50 64 69 63 48 31 19 12 8 5 2 1 1 0 1 1 0 0 0 0 0 0 0 0 0 0
0 0 0 0 0 0 0 0 0 0 0 3 6 7 9 23 37 29 15 16 25 31 33 42 56 65 61 50 34 21 14 10 6 3 1 1 1 1 0 0 0 0 0 0 0 0 0 0 0
0 0 0 0 0 0 0 0 0 0 0 4 11 13 15 32 43 29 12 11 20 29 30 32 41 52 53 46 33 23 16 12 8 5 3 2 3 3 1 0 0 0 0 0 0 0 0 0 0
0 0 0 0 0 0 0 0 0 0 1 4 11 14 16 26 31 19 6 6 15 24 25 22 23 29 33 30 25 20 16 13 10 8 5 5 6 5 3 2 2 2 2 2 1 0 0 0 0
0 0 0 0 0 0 0 0 0 1 1 3 8 10 13 21 29 24 13 8 10 15 16 14 12 12 13 13 13 12 11 10 10 9 7 6 6 5 5 5 6 7 6 5 4 3 1 1 0
0 0 0 0 0 0 0 0 0 1 3 5 7 9 14 25 37 39 28 15 8 7 8 9 10 9 7 5 5 5 5 5 6 6 5 4 3 2 3 6 10 11 9 7 6 5 3 1 1
0 0 0 0 0 0 0 0 0 1 4 6 9 13 20 28 37 45 42 28 14 5 3 5 8 10 7 4 2 1 1 2 3 2 1 1 0 0 1 4 8 11 9 7 5 4 3 1 0
0 0 0 0 0 0 0 0 0 0 2 4 9 16 22 24 28 39 46 40 26 11 4 2 4 6 5 3 1 0 0 1 1 0 0 0 0 0 0 1 4 5 5 4 3 2 1 0 0
0 0 0 0 0 0 0 0 0 0 0 2 7 16 20 20 21 27 39 45 38 22 9 3 3 2 2 1 0 0 0 0 0 0 0 0 0 0 0 0 1 1 2 3 2 1 0 0 0
0 0 0 0 0 0 0 0 0 0 0 3 9 16 19 18 17 19 29 44 47 34 18 9 5 3 1 0 0 0 0 0 0 0 0 0 0 0 0 0 0 1 3 3 1 0 0 0 0
0 0 0 0 0 0 0 0 0 0 1 5 10 15 15 16 18 19 25 40 49 42 29 21 15 11 8 6 4 1 0 1 1 0 0 0 0 0 0 1 1 1 2 1 1 0 0 0 0
0 0 0 0 0 0 0 0 0 0 2 5 9 12 13 16 20 21 22 29 38 41 41 40 37 32 27 21 13 7 4 4 4 3 2 2 1 1 2 3 3 2 1 0 0 0 0 0 0
0 0 0 0 0 0 0 0 0 0 1 4 7 11 17 22 24 23 21 21 26 37 50 59 61 59 54 45 32 22 17 14 11 9 9 9 7 5 5 6 5 2 0 0 0 0 0 0 0
0 0 0 0 0 0 0 0 0 0 1 3 6 13 22 29 30 29 27 24 25 36 53 67 74 77 77 69 56 46 38 31 24 20 18 17 14 10 7 5 4 1 0 0 0 0 0 0 0
0 0 0 0 0 0 0 0 0 1 4 6 8 16 28 36 37 37 38 37 34 37 52 66 76 84 88 85 77 68 59 48 37 30 26 22 19 15 10 6 2 0 0 0 0 0 0 0 0
0 0 0 0 0 0 1 2 3 6 12 15 18 26 37 43 43 43 44 44 39 39 48 61 73 83 90 91 86 79 70 56 42 34 29 25 22 19 15 8 2 0 0 0 0 0 0 0 0
0 0 0 0 0 1 2 5 9 15 22 27 31 38 43 43 42 41 40 38 38 38 44 56 68 78 87 89 85 77 65 51 39 31 26 23 21 20 16 9 2 0 0 0 0 0 0 0 0
0 0 0 0 0 1 3 6 12 21 29 34 40 42 41 38 37 36 34 32 32 35 41 52 64 74 82 85 80 68 55 43 32 24 18 15 13 14 11 6 1 0 0 0 0 0 0 0 0
0 0 0 0 0 0 1 3 10 20 29 35 40 39 36 33 33 34 33 30 28 32 40 49 60 68 74 75 69 57 45 34 22 14 10 6 5 5 5 2 0 0 0 0 0 0 0 0 0
0 0 0 0 0 0 0 2 8 15 22 30 33 31 29 28 27 27 29 27 26 29 36 43 49 51 53 52 47 38 29 20 12 7 3 1 0 1 1 0 0 0 0 0 0 0 0 0 0
0 0 0 0 0 0 0 2 6 10 15 21 23 20 19 20 19 18 20 22 22 24 27 30 30 27 24 23 21 18 14 9 6 3 1 0 0 0 0 0 0 0 0 0 0 0 0 0 0
0 0 0 0 0 0 0 1 4 7 11 14 14 12 12 13 13 12 13 13 14 15 16 16 14 11 8 7 6 6 6 5 2 1 0 0 0 0 0 0 0 0 0 0 0 0 0 0 0
0 0 0 0 0 0 0 1 3 6 8 9 9 8 7 7 8 8 7 6 6 7 7 7 7 6 5 3 2 2 2 1 0 0 0 0 0 0 0 0 0 0 0 0 0 0 0 0 0
0 0 0 0 0 0 0 1 3 5 6 6 5 4 3 3 3 2 2 2 2 3 3 3 3 3 2 1 1 0 0 0 0 0 0 0 0 0 0 0 0 0 0 0 0 0 0 0 0
0 0 0 0 0 0 0 0 2 4 4 3 2 1 0 0 0 0 0 1 1 1 1 1 1 1 0 0 0 0 0 0 0 0 0 0 0 0 0 0 0 0 0 0 0 0 0 0 0
0 0 0 0 0 0 0 0 1 3 3 1 0 0 0 0 0 0 0 0 0 0 0 0 0 0 0 0 0 0 0 0 0 0 0 0 0 0 0 0 0 0 0 0 0 0 0 0 0
0 0 0 0 0 0 0 0 1 2 2 1 0 0 0 0 0 0 0 0 0 0 0 0 0 0 0 0 0 0 0 0 0 0 0 0 0 0 0 0 0 0 0 0 0 0 0 0 0

GEFSSGP_con_prob3kmehi_066.txt.gz
EHI
0 0 0 0 0 0 0 0 0 0 0 0 0 0 0 0 0 0 0 7 27 47 45 36 38 46 62 82 95 98 99 100 99 97 94 92 89 84 77 68 57 41 24 12 6 3 1 0 1
0 0 0 0 0 0 0 0 0 0 0 0 0 0 0 0 0 0 2 12 35 50 45 38 42 52 65 81 93 97 97 98 96 92 88 83 79 75 67 59 48 32 17 8 3 1 0 0 1
0 0 0 0 0 0 0 0 0 0 0 0 0 0 0 0 0 0 6 21 40 48 42 41 49 57 68 82 92 95 95 93 89 82 75 70 64 58 50 41 29 18 9 3 1 0 0 0 1
0 0 0 0 0 0 0 0 0 0 0 0 0 0 0 0 0 5 15 31 43 41 36 42 54 60 66 78 87 89 88 87 81 73 65 58 49 41 31 21 13 7 3 1 0 0 0 0 0
0 0 0 0 0 0 0 0 0 0 0 0 0 0 1 1 2 12 26 36 41 39 33 41 54 59 62 69 76 78 79 79 74 64 54 44 33 24 16 9 5 2 1 0 0 0 0 0 0
0 0 0 0 0 0 0 0 0 0 0 0 0 0 1 2 5 15 28 33 35 37 34 37 44 47 51 58 64 67 70 70 63 51 37 26 17 11 7 4 2 0 0 0 0 0 0 0 0
0 0 0 0 0 0 0 0 0 0 0 0 0 0 1 4 8 17 27 32 32 33 33 32 29 29 35 44 52 57 59 56 46 32 21 12 8 5 3 1 0 0 0 0 0 0 0 0 0
0 0 0 0 0 0 0 0 0 0 0 0 0 0 4 10 18 27 37 40 35 30 27 25 21 19 22 28 37 42 41 36 26 17 10 6 4 3 1 0 0 0 0 0 0 0 0 0 0
0 0 0 0 0 0 0 0 0 0 0 0 0 3 13 26 32 38 46 45 37 29 21 17 18 19 18 19 22 25 22 17 11 7 5 3 1 1 0 0 0 0 0 0 0 0 0 0 0
0 0 0 0 0 0 0 0 0 0 0 0 2 12 33 45 39 35 38 38 33 26 17 12 14 17 17 15 13 12 10 6 3 3 2 1 0 0 0 0 0 0 0 0 0 0 0 0 0
0 0 0 0 0 0 0 0 0 0 0 0 6 29 56 57 37 24 22 23 21 18 13 9 10 11 11 9 8 7 5 3 1 1 1 1 0 0 0 0 0 0 0 0 0 0 0 0 0
0 0 0 0 0 0 0 0 0 0 0 0 12 44 69 59 32 16 11 10 9 8 7 6 5 6 5 4 5 5 4 3 2 1 0 0 0 0 0 0 0 0 0 0 0 0 0 0 0
0 0 0 0 0 0 0 0 0 0 0 3 20 49 66 54 30 13 7 4 3 4 4 4 3 4 4 3 4 4 3 2 2 1 0 0 0 0 0 0 0 0 0 0 0 0 0 0 0
0 0 0 0 0 0 0 0 0 0 1 6 23 42 49 43 28 17 10 4 1 2 3 3 3 3 3 4 4 4 2 1 1 0 0 0 0 0 0 0 0 0 0 0 0 0 0 0 0
0 0 0 0 0 0 0 0 0 0 1 6 16 25 29 28 24 19 13 6 2 2 2 3 3 3 2 2 3 3 2 0 0 0 0 0 0 0 0 0 0 0 0 0 0 0 0 0 0
0 0 0 0 0 0 0 0 1 1 1 3 7 11 15 17 18 18 13 9 7 5 3 4 5 5 3 1 1 1 1 0 0 0 0 0 0 0 0 0 0 0 0 0 0 0 0 0 0
0 0 0 0 0 0 0 1 2 2 1 2 4 6 10 15 18 18 15 13 13 11 7 8 9 8 5 4 3 2 1 0 0 0 0 0 0 0 0 0 0 0 0 0 0 0 0 0 0
0 0 0 0 0 0 0 1 2 3 4 5 5 5 10 15 18 19 18 18 17 17 16 16 16 15 12 12 10 7 4 2 1 0 0 0 0 0 0 0 0 0 0 0 0 0 0 0 0
0 0 0 0 0 0 0 0 1 4 7 7 6 7 11 16 20 20 21 21 20 20 23 25 25 24 26 26 23 18 11 4 1 0 0 0 0 0 0 0 0 0 0 0 0 0 0 0 0
0 0 0 0 0 0 0 0 2 5 7 8 10 12 15 18 20 21 21 22 21 21 24 28 29 31 35 37 33 24 14 6 2 1 1 1 0 0 0 0 0 0 0 0 0 0 0 0 0
0 0 0 0 0 0 0 1 3 6 8 11 13 15 17 18 17 16 16 18 19 20 23 26 29 33 36 36 32 25 17 10 6 4 3 2 1 0 0 0 0 0 0 0 0 0 0 0 0
0 0 0 0 0 0 0 1 3 6 8 11 12 12 14 14 12 10 10 12 15 17 20 22 25 28 28 27 25 22 18 13 9 7 5 2 1 0 0 0 0 0 0 0 0 0 0 0 0
0 0 0 0 0 0 0 0 2 3 5 8 8 8 9 9 6 6 7 9 10 12 14 15 15 15 15 15 17 17 15 12 9 6 3 1 0 0 0 0 0 0 0 0 0 0 0 0 0
0 0 0 0 0 0 0 1 2 2 3 4 4 4 5 4 3 4 6 6 6 6 6 6 6 6 6 8 10 11 10 8 6 3 1 0 0 0 0 0 0 0 0 0 0 0 0 0 0
0 0 0 0 0 0 0 1 1 1 1 2 2 2 2 2 2 3 4 4 3 2 1 2 3 3 4 5 5 5 6 5 3 1 0 0 0 0 0 0 0 0 0 0 0 0 0 0 0
0 0 0 0 0 0 0 0 0 0 0 1 1 1 1 1 1 1 1 1 1 1 1 1 3 3 3 3 2 2 2 2 1 0 0 0 0 0 0 0 0 0 0 0 0 0 0 0 0
0 0 0 0 0 0 0 0 0 0 0 0 0 0 0 0 0 0 0 0 0 0 0 1 2 2 1 1 0 0 0 0 0 0 0 0 0 0 0 0 0 0 0 0 0 0 0 0 0
0 0 0 0 0 0 0 0 0 0 0 0 0 0 0 0 0 0 0 0 0 0 0 0 1 1 0 0 0 0 0 0 0 0 0 0 0 0 0 0 0 0 0 0 0 0 0 0 0
0 0 0 0 0 0 0 0 0 0 0 0 0 0 0 0 0 0 0 0 0 0 0 0 0 0 0 0 0 0 0 0 0 0 0 0 0 0 0 0 0 0 0 0 0 0 0 0 0
0 0 0 0 0 0 0 0 0 0 0 0 0 0 0 0 0 0 0 0 0 0 0 0 0 0 0 0 0 0 0 0 0 0 0 0 0 0 0 0 0 0 0 0 0 0 0 0 0

GEFSSGP_con_prob3kmehi_072.txt.gz
EHI
0 0 0 0 0 0 0 0 0 0 0 0 0 0 0 0 0 2 12 35 62 73 60 44 45 55 65 76 85 91 94 90 86 83 79 74 64 53 42 30 21 17 14 11 7 4 3 3 3
0 0 0 0 0 0 0 0 0 0 0 0 0 0 0 0 1 4 19 45 67 71 55 41 45 57 68 79 88 95 97 94 92 90 86 80 69 57 44 31 22 18 14 9 5 3 2 2 1
0 0 0 0 0 0 0 0 0 0 0 0 0 0 0 1 3 11 32 58 72 64 47 42 48 58 68 79 90 97 99 98 97 96 92 86 75 61 46 31 21 15 11 6 2 1 1 1 0
0 0 0 0 0 0 0 0 0 0 0 0 0 0 0 2 8 23 46 66 70 53 36 37 46 53 61 73 87 97 100 99 99 97 94 88 79 63 45 31 19 9 5 3 1 0 0 0 0
0 0 0 0 0 0 0 0 0 0 0 0 0 0 2 7 19 39 54 60 55 38 25 28 36 42 50 64 81 95 99 99 99 98 94 89 80 63 43 29 16 5 1 2 1 0 0 0 0
0 0 0 0 0 0 0 0 0 0 0 0 0 0 3 15 35 52 52 43 35 25 17 19 22 26 35 50 69 85 94 96 97 95 91 86 77 60 40 24 12 4 1 1 1 0 0 0 0
0 0 0 0 0 0 0 0 0 0 0 0 0 0 6 26 52 63 52 33 22 15 12 11 9 10 17 30 46 64 77 83 87 86 81 75 65 48 29 17 11 6 3 1 0 0 0 0 0
0 0 0 0 0 0 0 0 0 0 0 0 0 0 12 40 65 73 61 42 26 15 9 6 3 2 4 10 21 36 49 59 64 62 57 49 38 25 15 11 10 7 4 1 0 0 0 0 0
0 0 0 0 0 0 0 0 0 0 0 0 0 1 17 47 70 78 74 62 45 27 13 5 2 1 0 2 7 15 23 30 33 29 25 18 11 7 6 8 9 6 3 1 0 0 0 0 0
0 0 0 0 0 0 0 0 0 0 0 0 0 2 17 44 66 77 78 70 56 38 18 6 2 2 2 3 7 9 11 12 10 8 6 4 2 1 3 7 7 3 1 0 0 0 0 0 0
0 0 0 0 0 0 0 0 0 0 0 0 0 4 14 33 54 65 65 57 46 34 20 9 4 3 4 7 10 11 11 10 6 5 6 8 6 2 2 3 3 1 0 1 1 1 0 0 0
0 0 0 0 0 0 0 0 0 0 0 0 1 5 11 22 35 44 44 38 30 25 19 11 6 5 6 9 11 10 11 11 9 9 10 10 9 4 1 0 0 0 0 1 2 1 0 0 0
0 0 0 0 0 0 0 0 0 0 0 0 2 6 10 14 20 25 28 25 22 21 18 12 7 7 10 11 9 7 8 9 9 11 10 9 8 5 2 0 1 1 1 1 1 1 1 1 1
0 0 0 0 0 0 0 0 0 0 0 2 5 9 11 12 14 18 21 21 19 19 17 12 8 7 9 11 10 9 9 9 9 10 10 9 8 6 4 2 3 2 2 1 1 3 4 4 3
0 0 0 0 0 0 0 0 0 0 2 6 11 15 18 17 17 17 18 18 17 17 15 11 6 6 7 9 11 12 11 10 10 10 10 10 9 7 5 4 5 5 6 6 8 10 11 9 7
0 0 0 0 0 0 0 1 3 3 5 11 19 25 27 25 21 18 15 14 14 15 14 9 6 6 8 10 12 13 12 12 11 11 10 9 9 8 7 7 10 14 15 16 17 18 17 15 13
0 0 0 0 0 0 1 4 7 7 8 14 25 33 36 34 31 25 20 15 13 12 12 10 9 10 12 14 13 12 13 14 15 14 11 10 10 10 11 15 22 26 25 24 23 21 19 17 15
0 0 0 0 0 0 2 7 11 11 10 17 27 35 39 42 44 39 32 26 20 16 15 17 18 21 23 23 20 19 19 21 23 20 16 14 15 14 17 24 30 31 28 26 24 20 16 13 11
0 0 0 0 0 0 3 8 11 11 14 21 29 36 41 45 47 44 39 35 32 27 25 27 30 34 39 39 38 36 33 31 29 25 22 20 18 17 21 26 27 25 23 22 20 17 13 8 6
0 0 0 0 0 0 3 7 8 10 16 25 32 37 40 41 39 38 38 39 39 37 35 37 41 47 51 52 54 54 46 35 29 27 26 21 17 17 19 20 18 17 17 15 13 12 9 5 3
0 0 0 0 0 0 2 6 8 9 15 24 33 36 36 35 32 30 33 37 40 42 43 45 51 57 58 57 58 56 46 31 25 24 22 16 12 11 12 11 10 11 10 9 8 6 5 3 1
0 0 0 0 0 0 1 3 6 7 11 20 28 31 29 28 27 25 26 31 35 40 44 48 55 59 59 58 54 48 38 25 19 17 14 9 5 4 5 6 5 5 5 4 3 2 1 1 0
0 0 0 0 0 0 0 2 5 7 11 16 20 22 20 17 18 19 20 23 27 31 35 41 47 50 51 50 46 39 29 18 12 10 7 4 2 2 2 2 2 1 1 1 0 0 0 0 0
0 0 0 0 0 0 0 2 6 10 11 12 14 14 11 8 9 10 11 13 16 18 21 25 28 31 32 31 29 26 20 13 9 6 4 2 1 1 1 1 0 0 0 0 0 0 0 0 0
0 0 0 0 0 0 0 4 10 13 10 9 10 10 8 6 5 5 5 5 6 7 8 9 10 11 13 13 13 13 11 8 6 4 2 1 0 0 0 0 0 0 0 0 0 0 0 0 0
0 0 0 0 0 0 1 6 12 11 8 8 7 6 5 5 4 4 3 2 1 1 1 1 2 3 3 4 4 5 5 4 3 2 1 0 0 0 0 0 0 0 0 0 0 0 0 0 0
0 0 0 0 0 0 1 5 7 6 4 5 5 3 2 3 3 2 1 1 0 0 0 0 1 1 1 1 1 1 1 1 1 1 0 0 0 0 0 0 0 0 0 0 0 0 0 0 0
0 0 0 0 0 0 1 2 2 1 1 1 1 1 0 1 1 1 0 0 0 0 0 0 0 0 0 0 0 0 0 0 0 0 0 0 0 0 0 0 0 0 0 0 0 0 0 0 0
0 0 0 0 0 0 0 1 2 3 2 1 0 0 0 0 0 0 0 0 0 0 0 0 0 0 0 0 0 0 0 0 0 0 0 0 0 0 0 0 0 0 0 0 0 0 0 0 0
0 0 0 0 0 0 1 2 3 5 4 2 1 1 0 0 0 0 0 0 0 0 0 0 0 0 0 0 0 0 0 0 0 0 0 0 0 0 0 0 0 0 0 0 0 0 0 0 0

GEFSSGP_con_prob3kmehi_078.txt.gz
EHI
0 0 0 0 0 0 0 0 0 0 0 0 0 0 0 1 2 6 17 47 84 98 96 94 90 73 47 26 14 8 6 6 6 5 4 3 4 4 4 4 3 3 3 3 3 3 3 3 3
0 0 0 0 0 0 0 0 0 0 0 0 0 0 1 2 3 10 30 64 90 98 95 94 92 80 57 35 23 14 11 10 10 8 6 5 5 5 5 4 3 3 3 3 3 3 3 3 3
0 0 0 0 0 0 0 0 0 0 0 0 0 1 3 4 8 23 52 80 94 94 94 95 95 88 71 51 35 24 18 16 17 16 12 9 8 7 6 4 3 3 3 3 3 3 3 3 3
0 0 0 0 0 0 0 0 0 0 0 0 1 6 11 13 22 44 67 86 89 84 85 92 95 91 79 61 44 33 27 25 25 24 20 15 11 10 7 4 3 3 3 3 3 3 3 3 3
0 0 0 0 0 0 0 0 0 0 0 0 4 15 24 28 43 59 70 80 82 76 77 84 90 88 79 65 51 43 40 40 38 34 28 22 18 13 8 4 3 3 3 3 3 3 3 3 3
0 0 0 0 0 0 0 0 0 0 0 0 6 21 32 39 49 58 62 67 74 78 75 75 78 80 76 68 59 54 53 53 50 43 35 30 25 17 9 6 4 3 3 3 3 3 3 3 3
0 0 0 0 0 0 0 0 0 0 0 0 5 19 34 40 42 45 48 53 68 78 69 55 55 61 63 60 60 61 58 55 50 42 34 30 25 17 11 8 6 4 3 3 3 3 3 3 3
0 0 0 0 0 0 0 0 0 0 0 0 3 16 33 38 34 35 37 45 62 71 56 35 32 38 39 41 46 51 51 46 39 31 24 21 17 12 9 10 9 6 3 3 3 3 3 3 4
0 0 0 0 0 0 0 0 0 0 0 0 5 17 30 31 28 31 38 50 64 66 47 27 22 22 21 24 29 32 32 29 24 17 14 11 8 6 10 18 20 11 4 3 4 4 4 4 4
0 0 0 0 0 0 0 0 0 0 0 1 7 18 25 25 23 28 42 58 69 64 44 28 24 18 14 19 22 18 15 13 11 9 7 5 4 7 17 31 30 15 5 4 5 5 5 4 4
0 0 0 0 0 0 0 0 0 0 0 1 7 17 23 22 20 25 39 57 64 56 41 35 30 20 18 25 22 15 13 11 10 11 9 6 5 9 22 32 28 16 7 5 6 6 5 4 4
0 0 0 0 0 0 0 0 0 0 0 2 6 14 19 17 16 21 36 51 56 47 40 44 46 39 43 44 31 19 18 19 21 24 19 11 8 10 20 27 23 15 12 12 12 10 8 7 7
0 0 0 0 0 0 0 0 0 0 0 2 6 10 13 11 14 24 38 53 57 47 43 56 68 71 73 67 47 30 26 27 33 36 27 16 14 16 23 27 24 18 18 25 24 20 17 15 14
0 0 0 0 0 0 0 0 0 0 0 1 4 8 11 13 20 33 49 62 66 59 55 68 84 89 87 76 59 44 36 35 40 43 34 23 23 30 35 34 31 24 25 33 35 31 26 22 20
0 0 0 0 0 0 0 0 1 1 1 3 6 11 17 23 32 46 61 72 76 75 73 77 85 89 87 75 62 52 43 41 47 49 43 31 30 40 45 42 38 32 33 39 40 36 31 27 24
0 0 0 0 0 0 0 1 3 4 5 8 14 20 28 36 45 56 67 77 83 86 86 81 78 83 84 74 64 56 51 53 58 60 53 40 36 43 49 47 42 40 40 41 40 38 37 34 29
0 0 0 0 0 0 1 3 5 7 10 17 25 31 37 45 54 64 73 81 87 91 92 84 78 80 80 75 68 63 64 67 69 68 63 53 46 48 51 51 49 45 43 41 38 39 42 39 32
0 0 0 1 1 1 3 6 11 14 19 28 33 38 43 51 60 70 79 86 91 94 94 88 83 82 81 77 72 68 68 71 71 69 66 61 56 55 57 57 53 48 42 39 37 36 36 33 29
0 0 1 2 3 4 7 12 19 26 32 38 39 41 47 55 64 73 78 84 88 90 90 87 83 81 80 77 72 68 66 64 62 58 55 54 55 56 56 53 48 42 36 33 32 30 25 20 17
0 0 1 3 4 5 10 16 24 32 38 40 40 43 48 56 64 68 71 74 78 80 80 79 77 75 74 72 71 69 66 60 49 42 39 40 43 43 41 39 34 29 25 24 24 21 15 9 6
0 0 0 1 2 3 7 13 19 27 32 33 36 43 48 53 55 56 57 60 63 66 67 68 69 69 69 70 71 73 69 55 38 28 24 24 24 24 24 22 19 15 15 15 14 10 6 3 2
0 0 0 0 0 0 3 7 14 22 26 27 33 41 44 45 43 41 42 44 45 47 50 53 57 59 62 67 69 68 59 41 26 17 13 11 10 10 10 10 8 7 7 6 4 2 0 0 0
0 0 0 0 0 0 1 3 12 21 23 24 30 35 35 33 31 30 30 30 28 29 32 36 40 42 46 52 55 49 36 23 15 11 8 6 5 4 4 3 3 2 2 1 0 0 0 0 0
0 0 0 0 0 0 0 4 14 24 23 22 25 26 24 21 20 20 21 20 18 18 20 23 24 25 27 30 31 26 17 11 9 7 5 4 4 3 2 1 1 1 0 0 0 0 0 0 0
0 0 0 0 0 0 1 10 24 34 31 25 21 17 14 13 12 13 14 13 12 13 14 15 14 14 13 12 12 11 9 7 5 4 3 3 2 2 1 0 0 0 0 0 0 0 0 0 0
0 0 0 0 0 0 3 18 37 42 35 27 19 12 9 8 9 8 8 8 8 8 9 8 7 6 5 4 4 4 5 4 3 2 1 1 1 1 0 0 0 0 0 0 0 0 0 0 0
0 0 0 0 0 1 5 19 33 35 28 22 16 10 7 6 6 5 3 3 3 4 4 4 3 3 2 2 1 1 1 1 1 1 0 0 0 0 0 0 0 0 0 0 0 0 0 0 0
0 0 0 0 0 1 4 10 18 21 18 15 12 9 6 4 3 2 1 1 1 1 1 1 1 1 1 1 0 0 0 0 0 0 0 0 0 0 0 0 0 0 0 0 0 0 0 0 0
0 0 0 0 0 0 1 3 8 13 12 10 9 7 4 2 1 0 0 0 0 0 0 0 0 0 0 0 0 0 0 0 0 0 0 0 0 0 0 0 0 0 0 0 0 0 0 0 0
0 0 0 0 0 0 0 1 5 9 11 10 8 6 3 1 0 0 0 0 0 0 0 0 0 0 0 0 0 0 0 0 0 0 0 0 0 0 0 0 0 0 0 0 0 0 0 0 0

GEFSSGP_con_prob3kmehi_084.txt.gz
EHI
0 0 0 0 0 0 0 0 0 0 0 0 0 1 3 5 5 6 12 28 51 62 52 43 49 56 55 47 36 26 21 21 20 19 18 16 14 12 8 4 3 1 0 0 0 0 0 0 0
0 0 0 0 0 0 0 0 0 0 0 0 1 3 6 9 12 15 22 41 64 71 60 49 53 59 57 47 35 24 17 13 11 10 9 9 9 7 5 3 3 2 1 0 0 0 0 0 0
0 0 0 0 0 0 0 0 0 0 0 0 1 4 6 11 20 28 41 62 78 80 69 60 63 66 60 48 34 21 11 6 3 2 1 2 3 2 1 2 2 2 1 0 0 0 0 0 0
0 0 0 0 0 0 0 0 0 0 0 0 2 6 9 16 31 49 66 79 84 83 76 70 71 70 61 49 35 21 10 4 2 1 0 0 1 0 0 1 1 1 0 0 0 0 0 0 0
0 0 0 0 0 0 0 0 0 0 0 1 5 11 15 26 48 69 81 86 86 84 81 78 75 69 59 49 41 27 13 6 3 1 0 0 0 0 0 0 0 0 0 0 0 0 0 0 0
0 0 0 0 0 0 0 0 0 0 0 1 8 16 22 35 57 73 81 85 85 86 86 83 75 65 56 50 44 32 18 9 4 1 0 0 0 0 0 0 0 0 0 0 0 0 0 0 0
0 0 0 0 0 0 0 0 0 0 0 2 10 19 27 41 56 67 77 83 84 86 88 84 73 60 50 45 42 33 22 14 7 2 0 0 0 0 0 0 0 0 0 0 0 0 0 0 1
0 0 0 0 0 0 0 0 0 0 1 4 10 19 31 46 58 67 75 80 80 81 82 80 74 61 45 38 35 29 22 16 10 4 1 0 0 0 0 0 0 0 0 0 0 0 0 1 2
0 0 0 0 0 0 0 0 0 0 2 8 14 23 38 54 65 73 78 78 75 71 72 73 71 60 46 35 30 25 20 15 9 4 1 0 0 0 0 0 0 0 0 0 0 0 0 1 2
0 0 0 0 0 0 0 0 0 1 4 10 20 33 49 62 71 77 79 75 66 60 61 62 61 55 45 36 29 22 17 12 7 4 1 0 0 0 0 0 0 0 0 0 0 0 0 0 1
0 0 0 0 0 0 0 0 0 1 3 10 23 40 54 62 69 76 76 67 53 47 50 50 47 44 39 34 29 23 16 10 5 3 2 0 0 0 0 0 0 0 0 0 0 0 0 0 0
0 0 0 0 0 0 0 0 0 0 3 10 25 40 49 54 63 72 74 61 44 36 37 37 35 33 30 28 26 21 14 7 3 2 1 0 0 0 0 0 0 0 0 0 0 0 0 0 0
0 0 0 0 0 0 0 0 0 2 6 14 25 34 39 42 53 66 71 61 44 32 29 26 24 24 24 23 20 14 8 3 1 1 0 0 0 0 0 0 0 0 0 0 0 0 1 0 0
0 0 0 0 0 0 0 1 2 5 9 16 22 26 28 31 42 57 66 62 47 35 28 22 18 16 17 16 12 7 3 1 0 0 0 0 0 0 0 0 0 0 0 0 0 0 0 0 0
0 0 0 0 0 0 2 3 5 7 11 16 20 23 25 27 38 53 63 61 51 39 31 26 21 16 15 13 8 3 2 1 0 0 0 1 1 1 1 1 1 0 0 0 0 0 0 0 0
0 0 0 0 0 1 3 4 5 8 12 17 22 24 25 29 36 49 57 56 51 42 37 35 31 25 21 17 10 4 3 2 1 0 1 2 3 3 3 2 2 1 1 1 0 0 0 0 0
0 0 0 0 0 1 3 6 8 12 17 21 24 24 25 28 33 41 46 48 46 42 43 45 41 37 34 28 19 13 11 8 5 3 3 5 7 7 5 3 2 2 2 2 1 0 0 0 0
0 0 0 0 0 2 5 9 13 18 20 23 25 25 26 28 31 34 37 39 40 41 45 47 44 43 43 40 34 27 21 16 12 8 7 7 9 9 6 4 3 3 3 2 1 0 0 0 0
0 0 0 0 1 5 12 16 20 22 21 22 25 27 28 29 29 30 32 33 34 37 40 40 39 42 44 44 40 33 24 17 13 10 6 6 7 7 5 4 4 3 2 2 1 0 0 0 0
0 0 0 0 3 10 19 24 23 23 22 22 24 27 28 27 26 26 28 27 26 28 28 28 31 35 38 39 34 26 18 12 8 5 3 2 4 5 4 2 1 1 1 1 0 0 0 0 0
0 0 0 0 3 10 16 19 19 20 22 23 24 24 24 24 23 23 22 19 18 18 17 18 23 27 30 30 26 18 13 8 4 1 0 1 2 3 3 1 0 0 0 0 0 0 0 0 0
0 0 0 0 1 4 6 7 10 14 18 20 21 22 22 22 21 19 16 13 13 13 13 14 17 21 22 21 18 14 9 6 2 0 0 0 1 2 3 2 1 0 0 0 0 0 0 0 0
0 0 0 0 0 0 0 0 2 7 13 17 19 21 21 19 17 15 12 10 11 11 11 12 14 15 15 13 11 8 5 2 1 0 0 0 0 1 2 2 1 0 0 0 0 0 0 0 0
0 0 0 0 0 0 0 0 0 3 10 17 18 17 16 14 12 10 9 9 9 8 8 10 11 11 10 7 5 3 1 0 0 0 0 0 0 0 1 1 0 0 0 0 0 0 0 0 0
0 0 0 0 0 0 0 0 0 2 9 15 15 12 10 9 8 7 7 7 8 7 7 8 8 7 6 4 3 1 0 0 0 0 0 0 0 0 0 0 0 0 0 0 0 0 0 0 0
0 0 0 0 0 0 0 0 1 3 9 13 12 9 7 6 5 4 4 5 6 6 7 7 5 4 4 3 2 1 0 0 0 0 0 0 0 0 0 0 0 0 0 0 0 0 0 0 0
0 0 0 0 0 0 0 0 2 4 7 9 8 6 5 4 3 1 1 2 4 5 4 4 3 2 2 2 2 1 0 0 0 0 0 0 0 0 0 0 0 0 0 0 0 0 0 0 0
0 0 0 0 0 0 0 0 1 3 5 5 5 4 4 3 1 0 0 1 2 2 2 1 1 1 1 1 1 0 0 0 0 0 0 0 0 0 0 0 0 0 0 0 0 0 0 0 0
0 0 0 0 0 0 0 0 0 2 3 4 3 3 2 1 0 0 0 0 1 1 1 0 0 0 0 0 0 0 0 0 0 0 0 0 0 0 0 0 0 0 0 0 0 0 0 0 0
0 0 0 0 0 0 0 0 0 1 3 4 3 2 1 0 0 0 0 0 0 0 0 0 0 0 0 0 0 0 0 0 0 0 0 0 0 0 0 0 0 0 0 0 0 0 0 0 0

GEFSSGP_con_prob3kmehi_090.txt.gz
EHI
0 0 0 0 0 0 0 0 0 0 0 0 0 0 0 0 1 2 4 14 36 53 49 39 37 44 57 73 84 91 94 95 96 95 92 83 73 66 55 37 23 15 8 2 0 0 0 1 1
0 0 0 0 0 0 0 0 0 0 0 0 0 0 0 1 3 4 8 19 40 55 52 44 45 53 62 75 85 89 90 89 89 88 85 78 69 60 48 32 20 13 6 2 0 0 0 0 1
0 0 0 0 0 0 0 0 0 0 0 0 0 0 1 4 6 7 12 28 48 60 61 58 60 65 69 77 84 86 84 82 79 76 73 68 60 49 36 23 15 9 4 1 0 1 1 1 1
0 0 0 0 0 0 0 0 0 0 0 0 0 1 3 7 9 12 22 41 58 65 66 69 72 73 74 77 81 82 81 79 74 66 61 56 48 36 25 16 11 6 2 0 0 1 2 3 4
0 0 0 0 0 0 0 0 0 0 0 1 1 3 5 10 16 23 35 52 65 68 68 74 77 76 74 75 77 80 80 77 70 61 53 44 34 24 17 12 7 3 1 1 1 2 4 6 6
0 0 0 0 0 0 0 0 0 0 0 0 2 4 8 15 25 36 48 59 66 70 74 78 78 75 72 72 74 76 75 71 63 54 44 33 22 16 13 9 3 1 1 2 2 2 4 6 7
0 0 0 0 0 0 0 0 0 0 0 0 3 6 11 22 36 49 59 66 70 76 83 84 78 71 68 69 70 70 66 59 51 42 33 23 14 10 8 5 2 1 2 3 3 2 3 6 8
0 0 0 0 0 0 0 0 0 0 0 0 3 7 16 34 53 64 70 74 77 82 86 85 77 69 65 63 63 62 56 46 38 30 24 17 10 7 5 3 1 2 2 2 2 2 5 6 7
0 0 0 0 0 0 0 0 0 0 0 1 4 11 26 49 68 75 77 78 78 77 79 79 73 68 66 64 61 57 50 41 31 23 18 13 8 4 3 2 1 2 2 1 1 3 5 6 4
0 0 0 0 0 0 0 0 0 0 0 1 8 21 40 60 72 76 77 77 72 66 65 64 63 65 68 69 65 60 55 44 30 20 15 10 5 3 3 2 2 2 1 0 0 1 3 2 1
0 0 0 0 0 0 0 0 0 0 0 3 13 30 50 67 74 74 76 76 69 61 56 53 54 59 66 71 70 67 62 49 31 18 13 8 3 1 2 2 3 3 2 1 1 0 0 0 0
0 0 0 0 0 0 0 0 0 1 2 6 17 35 56 70 75 74 74 73 67 59 50 47 48 52 59 66 67 64 58 46 30 19 12 7 3 1 1 1 2 2 2 2 1 0 0 0 0
0 0 0 0 0 0 0 0 1 3 4 9 21 38 55 66 72 72 70 65 59 51 41 38 40 43 49 54 54 49 43 35 26 19 12 6 3 2 0 0 0 1 1 1 1 0 0 0 0
0 0 0 0 0 0 0 1 1 3 6 12 23 36 46 55 61 65 63 56 49 41 33 29 28 32 36 37 36 35 31 25 21 17 11 5 2 1 0 0 0 0 0 0 0 0 0 0 0
0 0 0 0 0 0 0 1 1 2 6 13 23 31 37 43 50 54 54 48 41 35 30 25 21 23 25 24 23 23 22 19 16 13 9 4 1 0 0 0 0 0 0 0 0 0 0 0 0
0 0 0 0 0 0 0 1 1 1 6 14 20 26 31 36 41 43 43 40 35 31 28 24 19 19 19 16 14 14 13 12 11 10 7 3 1 1 0 0 0 0 0 0 0 0 0 0 0
0 0 0 0 0 0 0 1 2 4 8 14 19 22 27 31 32 32 33 32 29 25 24 22 19 17 15 12 10 9 8 7 7 7 5 3 1 1 1 1 0 0 0 0 0 0 0 0 0
0 0 0 0 0 0 1 2 5 7 8 11 15 19 22 24 24 24 25 23 20 19 18 19 17 14 11 9 8 7 6 5 5 4 3 2 1 2 2 1 0 0 0 0 0 0 0 0 0
0 0 0 0 0 1 2 4 6 5 4 5 9 13 16 18 17 18 18 16 16 16 16 17 16 11 7 5 5 5 4 2 2 1 1 0 1 1 1 0 0 0 0 0 0 0 0 0 0
0 0 0 0 0 1 2 3 3 2 0 2 5 9 12 13 13 13 14 15 15 14 14 16 15 10 5 3 2 3 2 0 0 0 0 0 0 0 0 0 0 0 0 0 0 0 0 0 0
0 0 0 0 0 0 1 1 1 0 0 1 3 7 10 12 11 10 12 14 14 13 12 14 14 10 5 3 3 2 1 0 0 0 0 0 0 0 0 0 0 0 0 0 0 0 0 0 0
0 0 0 0 0 0 0 0 0 0 0 0 1 4 9 10 10 10 9 10 11 11 12 13 12 8 5 5 5 3 1 0 0 0 0 0 0 0 0 0 0 0 0 0 0 0 0 0 0
0 0 0 0 0 0 0 0 0 0 0 0 0 3 6 7 7 7 7 8 9 10 11 11 9 6 5 6 6 3 1 0 0 0 0 0 0 0 0 0 0 0 0 0 0 0 0 0 0
0 0 0 0 0 0 0 0 0 0 0 0 0 2 3 3 3 3 5 7 8 9 10 9 7 6 4 4 3 1 1 0 0 0 0 0 0 0 0 0 0 0 0 0 0 0 0 0 0
0 0 0 0 0 0 0 0 0 0 0 0 1 3 2 2 1 1 2 4 5 6 7 6 5 4 2 1 1 0 0 0 0 0 0 0 0 0 0 0 0 0 0 0 0 0 0 0 0
0 0 0 0 0 0 0 0 0 0 0 0 2 3 2 1 0 0 1 1 1 2 2 2 2 2 1 0 0 0 0 0 0 0 0 0 0 0 0 0 0 0 0 0 0 0 0 0 0
0 0 0 0 0 0 0 0 0 0 0 0 2 3 2 1 0 0 0 0 0 0 0 0 0 0 0 0 0 0 0 0 0 0 0 0 0 0 0 0 0 0 0 0 0 0 0 0 0
0 0 0 0 0 0 0 0 0 0 0 0 1 2 1 0 0 0 0 0 0 0 0 0 0 0 0 0 0 0 0 0 0 0 0 0 0 0 0 0 0 0 0 0 0 0 0 0 0
0 0 0 0 0 0 0 0 0 0 0 0 1 1 0 0 0 0 0 0 0 0 0 0 0 0 0 0 0 0 0 0 0 0 0 0 0 0 0 0 0 0 0 0 0 0 0 0 0
0 0 0 0 0 0 0 0 0 0 0 0 0 0 0 0 0 0 0 0 0 0 0 0 0 0 0 0 0 0 0 0 0 0 0 0 0 0 0 0 0 0 0 0 0 0 0 0 0

GEFSSGP_con_prob3kmehi_096.txt.gz
EHI
0 0 0 0 0 0 0 0 0 0 0 0 0 0 0 0 0 1 6 15 35 60 70 69 70 69 72 79 86 88 85 82 79 73 65 55 43 35 30 23 15 10 8 5 3 3 4 3 4
0 0 0 0 0 0 0 0 0 0 0 0 0 0 0 0 0 3 10 23 44 65 72 71 73 74 78 86 90 91 89 86 83 78 70 61 50 40 32 22 14 10 8 5 3 2 2 2 1
0 0 0 0 0 0 0 0 0 0 0 0 0 0 1 2 2 8 22 38 58 72 75 77 80 81 84 89 92 93 93 90 88 85 78 69 60 48 34 22 13 10 7 4 1 0 1 1 1
0 0 0 0 0 0 0 0 0 0 0 0 0 0 1 3 7 17 34 51 63 72 75 80 85 85 85 86 89 92 94 92 90 88 82 73 65 53 39 26 17 12 7 3 0 0 0 1 2
0 0 0 0 0 0 0 0 0 0 0 0 0 0 1 4 11 25 40 51 60 66 72 80 87 88 85 84 87 93 94 93 90 88 82 75 67 58 45 32 22 16 10 3 0 0 0 1 1
0 0 0 0 0 0 0 0 0 0 0 0 0 0 2 6 15 29 38 43 49 57 67 77 84 85 85 83 85 90 92 90 87 84 79 73 67 60 50 38 26 19 14 6 1 0 1 1 0
0 0 0 0 0 0 0 0 0 0 0 0 0 0 3 9 20 31 39 40 40 47 59 66 67 68 70 71 75 82 84 82 79 77 74 70 64 56 47 37 27 20 14 6 1 1 2 2 1
0 0 0 0 0 0 0 0 0 0 0 0 0 2 7 16 28 39 47 48 44 45 53 55 50 46 45 47 58 67 72 71 68 65 63 58 48 39 32 27 23 18 11 6 3 2 2 2 1
0 0 0 0 0 0 0 0 0 0 0 1 2 6 13 23 35 46 56 62 59 56 57 54 48 42 35 36 45 51 54 54 49 45 42 34 25 19 17 18 19 16 11 9 6 4 3 1 0
0 0 0 0 0 0 0 0 0 0 0 2 5 10 17 26 35 43 55 67 70 66 61 56 54 51 45 46 49 45 41 39 33 28 27 21 17 14 13 17 17 14 11 9 7 5 3 1 0
0 0 0 0 0 0 0 0 0 0 0 3 6 11 18 27 32 36 45 59 68 67 61 57 58 58 56 57 57 49 45 42 34 30 29 28 27 23 20 19 16 12 9 8 6 5 3 1 0
0 0 0 0 0 0 0 0 0 0 1 3 7 11 17 25 29 31 37 50 61 64 62 57 57 59 60 62 61 56 55 54 50 44 38 34 33 30 25 21 17 12 9 8 7 6 4 1 0
0 0 0 0 0 0 0 0 0 1 2 5 8 12 18 24 28 31 36 46 55 61 60 56 54 57 62 66 65 60 58 59 59 52 40 31 30 31 29 26 21 14 10 9 8 7 4 2 1
0 0 0 0 0 0 0 0 0 1 4 7 8 12 18 24 28 32 36 44 54 57 57 55 54 57 63 68 66 60 56 56 55 50 38 28 26 30 32 32 28 19 14 12 10 7 5 4 2
0 0 0 0 0 0 0 0 0 1 4 8 9 11 16 22 26 28 33 43 53 56 57 56 56 59 64 66 63 56 51 47 46 44 37 27 23 28 34 37 34 28 23 21 16 11 10 8 6
0 0 0 0 0 0 0 0 0 2 5 8 9 9 12 18 23 25 28 39 49 56 58 57 56 59 64 65 61 51 44 42 41 39 35 27 22 26 34 38 38 34 31 27 21 16 14 11 9
0 0 0 0 0 0 0 1 1 2 5 7 7 7 9 14 21 24 27 35 46 54 57 56 54 56 60 62 58 48 41 39 38 35 31 26 23 25 31 36 36 34 33 28 22 20 17 12 9
0 0 0 0 0 0 1 2 3 4 5 5 5 5 7 11 16 21 26 33 42 48 52 52 50 52 55 56 52 44 36 31 29 28 26 23 21 23 28 31 30 29 30 28 23 19 16 10 5
0 0 0 0 0 0 1 2 4 5 6 6 5 5 6 10 14 18 22 28 35 40 45 46 45 46 49 51 47 37 28 23 21 21 20 18 16 19 22 24 22 22 24 23 19 14 9 5 2
0 0 0 0 0 0 1 2 3 4 5 5 4 5 6 9 14 16 19 22 27 32 37 40 40 39 41 43 40 31 23 19 18 17 17 15 14 15 16 16 15 16 17 15 11 6 3 1 0
0 0 0 0 0 0 0 1 1 1 1 1 2 3 4 8 13 15 15 17 21 26 30 33 35 35 34 34 32 25 19 17 15 15 14 13 13 12 10 9 10 10 10 8 5 2 0 0 0
0 0 0 0 0 0 0 0 0 0 0 0 1 1 2 6 11 14 13 14 18 22 25 29 32 31 28 26 24 19 15 14 13 11 10 10 10 9 8 7 6 7 6 4 2 0 0 0 0
0 0 0 0 0 0 0 0 0 0 0 1 2 2 2 5 10 13 13 13 15 18 22 27 30 27 23 21 19 16 13 11 10 8 7 6 6 5 5 4 4 4 4 3 1 0 0 0 0
0 0 0 0 0 0 0 0 0 0 0 2 3 3 2 4 7 10 11 11 12 14 18 23 25 23 19 18 15 12 10 8 7 5 4 3 2 1 1 1 2 2 2 2 1 0 0 0 0
0 0 0 0 0 0 0 0 0 0 1 4 4 4 3 3 5 6 8 9 9 9 13 16 16 15 14 13 12 9 7 6 5 4 2 1 0 0 0 0 0 1 1 1 1 0 0 0 0
0 0 0 0 0 0 0 0 0 0 2 6 6 4 2 2 3 4 5 6 5 5 6 8 8 8 8 8 8 7 5 4 3 3 1 0 0 0 0 0 0 1 1 0 0 0 0 0 0
0 0 0 0 0 0 0 0 0 1 2 4 5 3 1 1 1 1 2 2 3 3 4 3 3 4 5 4 3 3 2 2 3 2 1 0 0 0 0 0 0 0 0 0 0 0 0 0 0
0 0 0 0 0 0 0 0 0 1 1 1 2 1 0 0 0 0 0 1 3 4 4 3 2 3 4 2 1 0 0 1 2 1 0 0 0 0 0 0 0 0 0 0 0 0 0 0 0
0 0 0 0 0 0 0 0 1 2 1 1 1 0 0 0 0 0 0 1 2 3 3 2 2 2 2 2 1 0 0 0 0 0 0 0 0 0 0 0 0 0 0 0 0 0 0 0 0
0 0 0 0 0 0 0 0 1 3 3 2 1 1 0 0 0 0 0 1 1 2 2 2 2 1 2 2 2 1 0 0 0 0 0 0 0 0 0 0 0 0 0 0 0 0 0 0 0

GEFSSGP_con_prob3kmehi_102.txt.gz
EHI
0 0 0 0 0 0 0 0 0 0 0 0 0 0 0 1 3 3 4 21 56 84 91 90 87 74 52 34 24 16 9 4 4 5 6 6 7 8 7 8 9 7 4 2 1 0 0 0 0
0 0 0 0 0 0 0 0 0 0 0 0 0 0 1 2 3 6 12 31 62 84 88 87 87 78 60 44 33 24 15 9 8 10 11 11 10 9 8 7 6 5 2 1 1 0 0 0 0
0 0 0 0 0 0 0 0 0 0 0 0 0 1 2 3 6 13 24 43 70 85 85 84 85 81 70 58 49 37 26 20 19 18 19 19 16 12 9 6 4 2 1 1 0 0 0 0 0
0 0 0 0 0 0 0 0 0 0 0 0 0 2 4 7 13 22 31 48 70 81 81 82 82 80 75 69 60 50 42 37 34 32 31 28 22 15 9 7 5 2 1 1 0 0 1 1 1
0 0 0 0 0 0 0 0 0 0 0 0 1 4 8 15 24 28 32 45 62 74 78 79 78 77 77 75 68 62 59 56 53 50 46 38 27 18 11 8 7 4 2 1 0 0 1 1 1
0 0 0 0 0 0 0 0 0 0 0 0 1 5 13 24 30 28 29 37 52 68 76 77 74 74 77 78 75 73 73 72 70 66 58 46 33 22 14 10 8 6 3 1 0 0 0 0 0
0 0 0 0 0 0 0 0 0 0 0 0 1 7 19 32 33 26 25 32 47 66 74 70 66 67 72 77 79 80 81 80 78 73 61 46 32 21 13 10 9 7 4 2 1 0 0 0 0
0 0 0 0 0 0 0 0 0 0 0 0 2 9 23 35 33 25 24 33 48 64 68 62 59 62 64 69 75 79 80 78 74 67 53 36 24 15 10 9 8 6 4 2 1 1 1 0 1
0 0 0 0 0 0 0 0 0 0 0 1 4 12 24 31 29 25 27 38 53 64 63 56 53 53 50 55 67 73 71 67 61 51 40 27 17 10 7 10 12 7 3 2 1 2 2 1 1
0 0 0 0 0 0 0 0 0 0 0 1 6 15 24 28 27 26 31 44 58 65 62 56 51 43 37 48 65 65 58 54 44 35 30 23 15 11 11 18 21 12 4 2 1 2 3 2 1
0 0 0 0 0 0 0 0 0 0 1 4 9 17 25 28 27 28 35 48 61 66 62 59 56 43 38 54 66 61 53 48 37 29 28 23 17 14 19 26 26 16 6 2 1 1 2 1 0
0 0 0 0 0 0 0 0 0 1 4 8 14 21 27 28 27 31 39 51 62 65 60 60 60 52 51 62 66 60 56 50 42 36 33 25 18 17 22 26 22 14 7 3 2 1 1 0 1
0 0 0 0 0 0 0 0 1 4 8 12 18 23 27 28 30 35 43 54 62 62 58 59 61 60 63 69 67 61 58 54 49 46 37 25 19 19 23 24 19 13 9 7 6 6 5 7 8
0 0 0 0 0 0 0 0 2 6 10 15 19 21 24 29 34 39 47 56 60 60 60 60 61 63 68 73 71 65 62 58 54 50 38 25 22 25 28 27 22 18 18 20 21 20 21 22 21
0 0 0 0 0 0 0 1 3 7 12 15 17 19 25 31 36 42 51 58 59 60 64 65 62 64 70 72 70 66 64 60 55 48 38 27 27 33 35 33 28 27 33 39 39 38 38 36 33
0 0 0 0 0 0 0 2 5 9 12 15 16 21 28 33 37 44 52 57 58 60 66 68 65 66 69 69 67 63 59 54 49 44 38 32 31 35 37 36 33 34 40 44 43 44 45 40 36
0 0 0 0 0 0 0 1 5 9 13 16 19 23 27 31 37 46 53 57 59 62 65 67 65 65 66 65 62 59 53 46 41 38 37 34 33 33 35 36 35 36 40 38 36 41 43 36 30
0 0 0 0 0 0 0 2 5 9 12 15 18 22 25 28 34 45 53 56 59 61 62 63 61 61 60 58 57 54 48 41 35 31 31 32 31 31 32 34 33 35 37 35 33 36 33 25 20
0 0 0 0 0 0 0 3 7 9 9 11 15 20 24 26 30 39 45 49 53 57 58 57 56 54 52 52 52 49 42 34 28 24 24 26 29 29 30 31 34 36 36 31 27 24 19 14 11
0 0 0 0 0 0 0 3 7 10 10 12 16 19 22 23 25 29 35 39 45 50 52 51 48 46 46 48 48 44 34 25 21 18 19 21 22 24 26 28 31 35 34 26 19 14 11 7 5
0 0 0 0 0 0 0 1 6 11 15 17 18 19 20 21 19 20 25 31 37 42 44 45 44 43 43 43 41 37 29 20 15 14 14 14 16 19 21 22 24 27 27 20 14 12 10 6 4
0 0 0 0 0 0 0 0 4 11 17 20 19 19 20 19 15 14 18 23 28 31 35 39 41 42 41 39 36 32 26 19 14 12 10 10 11 13 16 18 18 18 17 12 9 9 8 6 5
0 0 0 0 0 0 0 0 3 11 18 21 21 21 20 17 14 13 15 19 22 24 27 31 36 38 38 36 33 29 22 18 14 11 9 8 8 8 10 12 13 12 10 8 6 7 7 6 5
0 0 0 0 0 0 0 0 3 11 19 24 26 25 23 18 15 15 17 18 20 21 22 25 29 32 33 32 28 22 17 14 12 10 8 7 6 6 6 8 8 8 7 7 6 6 5 5 4
0 0 0 0 0 0 0 1 6 14 21 27 31 29 24 20 17 16 17 17 17 17 18 20 24 26 27 25 21 15 12 10 9 7 7 6 5 4 4 5 5 5 5 5 4 4 3 2 1
0 0 0 0 0 0 0 2 8 16 22 26 28 26 20 16 15 15 14 13 14 15 16 17 18 19 19 17 13 10 8 8 7 7 6 5 3 2 1 2 2 2 2 2 1 1 1 0 0
0 0 0 0 0 0 0 2 7 11 14 17 18 16 12 10 10 11 9 9 10 12 12 13 12 11 10 9 7 6 5 5 5 5 4 2 1 0 0 0 0 0 0 0 0 0 0 0 0
0 0 0 0 0 0 0 1 2 3 5 7 9 9 7 5 5 5 4 5 6 6 8 8 6 5 4 4 4 3 3 3 4 3 2 0 0 0 0 0 0 0 0 0 0 0 0 0 0
0 0 0 0 0 0 0 0 1 2 4 6 8 9 6 4 2 1 1 1 1 2 3 3 3 3 3 3 3 3 3 2 2 1 0 0 0 0 0 0 0 0 0 0 0 0 0 0 0
0 0 0 0 0 0 0 0 1 4 6 8 10 9 6 3 1 0 0 0 0 0 1 1 1 2 3 3 3 3 2 1 1 0 0 0 0 0 0 0 0 0 0 0 0 0 0 0 0

GEFSSGP_con_prob3kmehi_108.txt.gz
EHI
0 0 0 0 0 0 0 0 0 0 0 0 1 2 3 3 2 4 7 18 36 47 50 56 61 61 58 52 40 29 24 23 24 28 31 35 39 38 32 20 12 11 9 5 3 2 1 0 0
0 0 0 0 0 0 0 0 0 0 0 0 1 4 7 7 6 7 15 31 49 57 57 60 64 64 62 54 41 30 23 19 19 20 22 25 27 26 21 13 8 7 6 4 2 1 0 0 0
0 0 0 0 0 0 0 0 0 0 0 0 1 4 10 11 10 15 30 51 63 66 65 68 71 71 68 60 46 32 21 17 15 12 11 12 12 11 8 5 3 2 2 1 0 0 0 0 1
0 0 0 0 0 0 0 0 0 0 0 1 2 5 9 12 17 30 51 67 71 70 69 74 77 75 72 65 51 36 24 18 15 11 9 8 6 4 3 2 1 0 0 0 0 0 0 0 1
0 0 0 0 0 0 0 0 0 0 1 2 5 10 14 19 34 54 68 75 76 75 74 76 78 76 73 68 58 46 34 26 20 15 12 9 7 4 2 1 0 0 0 0 0 0 0 0 1
0 0 0 0 0 0 0 0 0 0 1 3 9 18 24 35 54 69 74 75 77 79 78 77 75 72 70 68 64 58 49 39 29 21 15 11 8 5 2 1 0 0 0 0 0 0 0 0 0
0 0 0 0 0 0 0 0 0 0 1 3 10 22 32 44 59 71 77 76 76 77 77 76 74 69 68 68 67 64 58 48 38 27 18 12 8 5 2 0 0 0 0 0 0 0 0 0 0
0 0 0 0 0 0 0 0 0 1 1 3 11 22 33 45 59 72 80 80 77 73 72 74 73 71 70 67 64 61 55 48 39 29 19 13 8 5 2 0 0 0 0 0 0 1 1 1 1
0 0 0 0 0 0 0 0 1 2 4 8 17 26 36 50 64 74 81 82 78 72 69 69 69 71 71 67 62 57 50 43 37 28 20 14 9 4 2 1 0 0 0 0 0 1 2 2 2
0 0 0 0 0 0 0 1 1 4 7 13 22 34 44 55 65 71 75 76 73 69 65 62 61 63 66 66 64 58 49 40 33 27 21 15 9 4 3 2 0 0 0 0 0 0 1 1 1
0 0 0 0 0 0 1 2 3 6 8 12 23 38 49 56 60 64 65 64 64 60 56 53 52 54 57 61 62 58 49 41 33 26 20 13 8 5 4 2 1 0 0 0 0 0 0 0 0
0 0 0 0 0 0 1 4 6 8 8 13 26 42 51 55 56 55 54 54 54 53 49 46 46 48 49 52 54 51 46 40 33 25 18 10 6 5 3 2 2 2 1 0 0 0 0 0 0
0 0 0 0 0 1 3 7 9 8 9 19 33 44 50 53 53 50 48 47 46 45 44 42 42 43 43 44 44 42 39 35 28 23 17 10 6 5 3 2 2 3 3 2 1 0 0 0 0
0 0 0 0 0 1 4 9 10 8 11 22 33 39 43 46 47 46 44 41 39 37 36 36 37 37 36 34 33 32 31 28 23 19 15 10 6 4 3 2 2 3 4 3 2 1 0 0 0
0 0 0 0 0 1 4 8 9 10 15 22 29 33 35 37 39 41 40 38 34 32 30 30 31 32 30 25 22 24 26 24 19 14 10 8 5 3 2 3 3 3 3 3 3 3 2 1 1
0 0 0 0 0 1 3 7 8 12 17 23 28 32 32 31 32 37 38 35 33 32 30 27 26 26 26 24 21 23 24 21 15 10 7 5 4 3 2 3 3 3 3 3 4 4 3 1 0
0 0 0 0 0 1 3 6 9 13 18 25 30 31 30 29 28 31 34 33 33 33 29 24 21 20 23 26 25 24 23 17 10 7 5 3 4 5 3 2 3 3 3 3 3 4 3 1 0
0 0 0 0 0 1 4 8 9 12 18 25 29 30 30 28 26 28 31 33 33 32 27 22 19 18 22 25 25 22 19 15 10 6 4 3 4 5 3 1 2 3 3 3 3 3 2 1 0
0 0 0 0 0 1 5 9 10 11 16 24 28 30 30 29 27 28 31 33 33 30 26 23 21 21 22 23 22 19 16 14 10 6 4 3 3 4 3 1 1 2 2 2 2 2 1 0 0
0 0 0 0 0 1 4 7 8 10 16 25 29 30 29 27 27 27 28 28 28 27 25 24 24 25 24 23 22 19 16 12 9 6 4 3 3 3 1 0 0 1 1 1 1 1 0 0 0
0 0 0 0 0 0 1 3 6 12 20 28 31 29 25 23 22 20 19 19 20 20 20 22 23 25 25 23 21 18 14 11 8 6 4 3 3 1 0 0 0 0 0 0 0 0 0 0 0
0 0 0 0 0 0 0 1 4 12 23 30 30 25 20 17 15 13 13 13 13 13 15 18 20 20 20 19 17 14 11 8 7 6 4 3 2 1 0 0 0 0 0 0 0 0 0 0 0
0 0 0 0 0 0 0 0 2 8 17 24 24 20 16 13 11 11 11 11 10 11 13 16 17 16 15 13 11 9 7 5 5 6 5 3 1 0 0 0 0 0 0 0 0 0 0 0 0
0 0 0 0 0 0 0 0 0 3 7 13 15 14 11 10 11 11 11 10 10 11 13 15 16 14 11 8 7 5 4 4 4 5 4 2 0 0 0 0 0 0 0 0 0 0 0 0 0
0 0 0 0 0 0 0 0 0 0 3 7 9 8 6 7 8 9 9 9 8 9 11 13 13 11 6 4 4 4 3 2 3 3 2 0 0 0 0 0 0 0 0 0 0 0 0 0 0
0 0 0 0 0 0 0 0 0 1 4 7 6 4 4 4 5 6 6 6 6 7 8 8 8 5 2 1 2 2 1 1 1 1 0 0 0 0 0 0 0 0 0 0 0 0 0 0 0
0 0 0 0 0 0 0 0 1 4 6 6 5 3 3 3 3 4 3 3 3 4 5 5 3 1 0 0 1 1 0 0 0 0 0 0 0 0 0 0 0 0 0 0 0 0 0 0 0
0 0 0 0 0 0 0 0 1 5 7 6 3 2 2 2 2 2 1 1 1 1 2 2 1 0 0 0 0 0 0 0 0 0 0 0 0 0 0 0 0 0 0 0 0 0 0 0 0
0 0 0 0 0 0 0 0 1 4 5 4 2 1 1 1 1 1 0 0 0 0 0 0 0 0 0 0 0 0 0 0 0 0 0 0 0 0 0 0 0 0 0 0 0 0 0 0 0
0 0 0 0 0 0 0 0 1 3 4 2 1 0 0 0 0 0 0 0 0 0 0 0 0 0 0 0 0 0 0 0 0 0 0 0 0 0 0 0 0 0 0 0 0 0 0 0 0

GEFSSGP_con_prob3kmehi_114.txt.gz
EHI
0 0 0 0 0 0 0 0 0 0 0 0 1 1 1 0 0 0 2 16 43 62 62 61 62 61 62 68 79 87 87 87 87 85 84 83 81 76 68 56 43 31 19 10 9 9 8 8 8
0 0 0 0 0 0 0 0 0 0 0 0 1 2 2 0 0 0 4 20 48 65 64 63 67 69 70 74 81 86 86 85 84 83 82 80 76 71 66 54 40 30 21 14 12 11 9 8 7
0 0 0 0 0 0 0 0 0 0 0 0 1 2 2 1 0 2 10 31 56 67 65 66 73 77 77 78 80 83 82 79 77 74 72 71 66 62 57 46 34 27 22 17 14 12 9 7 6
0 0 0 0 0 0 0 0 0 0 0 0 1 2 3 3 2 8 23 44 61 66 63 67 76 79 77 76 76 76 73 69 66 62 59 57 54 50 45 35 27 21 17 13 10 8 6 4 4
0 0 0 0 0 0 0 0 0 0 0 0 2 5 8 8 9 21 37 49 58 64 64 68 76 78 75 73 72 70 66 62 59 54 48 44 41 40 35 27 20 16 10 5 4 5 4 3 3
0 0 0 0 0 0 0 0 1 1 2 3 6 9 14 16 22 35 46 49 54 63 67 69 73 75 73 70 69 67 64 61 58 51 43 37 33 31 28 21 15 11 7 3 3 4 3 2 2
0 0 0 0 0 0 0 1 2 4 5 6 9 13 19 27 35 47 53 53 56 64 69 70 70 72 72 70 68 67 66 63 59 50 40 33 28 25 21 17 12 9 6 4 3 3 2 1 1
0 0 0 0 0 0 0 1 3 5 7 7 9 14 23 36 48 56 60 60 61 64 68 69 71 73 74 72 69 67 68 66 58 47 36 29 25 20 17 14 11 7 4 3 3 3 2 1 1
0 0 0 0 0 0 0 1 1 4 7 9 14 22 35 50 59 61 62 63 63 63 64 66 69 73 76 75 71 68 68 65 58 45 33 27 22 17 14 13 9 5 3 3 4 4 3 2 2
0 0 0 0 0 0 0 1 0 2 5 10 20 34 51 62 64 62 61 61 61 59 58 60 65 71 75 74 71 68 66 64 57 46 37 29 20 14 12 9 7 5 5 5 7 6 3 2 3
0 0 0 0 0 0 0 0 0 1 2 7 20 40 58 65 63 59 58 58 58 55 53 55 60 65 67 67 66 65 64 61 55 48 40 30 19 13 9 7 7 7 7 7 7 6 4 3 3
0 0 0 0 0 1 1 1 1 2 3 8 21 40 55 60 56 51 51 55 56 52 48 49 53 56 57 58 59 59 59 57 53 47 38 27 18 12 9 8 8 7 5 5 5 4 3 2 2
0 0 0 0 1 3 5 4 3 4 9 17 27 39 50 51 45 40 43 49 51 47 42 41 44 48 51 51 52 52 52 52 50 44 34 23 16 12 9 8 7 4 2 2 2 1 1 1 1
0 0 0 1 2 5 7 6 4 8 17 26 31 36 41 39 33 30 35 41 42 39 37 36 37 39 42 43 42 42 43 43 42 37 30 22 16 12 10 8 5 2 1 2 2 1 0 0 0
0 0 0 1 2 4 5 4 4 10 20 28 32 34 34 30 25 23 26 31 33 32 33 34 32 29 29 31 30 29 29 29 29 29 26 21 16 12 9 6 4 2 2 2 3 2 1 0 0
0 0 0 0 1 1 2 3 4 10 21 28 30 30 27 24 23 21 20 23 26 29 30 30 26 20 18 19 18 17 17 18 20 21 20 18 14 10 7 4 3 3 2 2 3 3 2 1 0
0 0 0 0 0 1 2 4 6 12 21 26 26 25 22 20 21 19 18 20 24 26 26 25 21 15 12 12 12 10 12 14 15 15 14 13 10 6 4 3 3 3 3 2 3 3 3 2 1
0 0 0 0 0 1 3 7 10 13 18 22 21 20 18 16 16 15 16 20 23 23 21 19 17 14 11 10 9 8 9 10 10 9 8 8 6 4 2 2 3 3 3 2 2 3 3 3 3
0 0 0 0 0 2 4 7 9 11 14 17 18 17 14 13 11 11 13 16 19 18 16 14 14 14 11 9 8 8 6 5 3 3 3 3 3 2 1 1 3 4 3 1 1 2 3 3 3
0 0 0 0 0 1 3 4 5 7 10 12 15 13 11 10 10 8 8 10 12 13 12 11 12 14 12 10 8 6 4 1 0 0 1 1 1 1 1 1 2 3 2 1 0 1 2 2 2
0 0 0 0 0 0 1 1 2 3 6 9 10 10 10 11 10 8 5 5 6 8 8 8 10 12 13 10 7 5 3 2 1 0 1 1 1 0 0 0 1 1 1 0 1 1 1 1 1
0 0 0 0 0 0 0 0 0 1 4 7 8 8 9 11 10 7 4 3 4 6 6 6 8 9 10 8 7 6 4 3 1 1 1 1 0 0 0 0 0 0 0 0 1 1 0 0 0
0 0 0 0 0 0 0 0 0 1 3 5 5 5 6 7 6 5 4 3 4 5 6 6 7 7 7 7 7 6 5 3 1 1 2 1 0 0 0 0 0 0 0 0 0 0 0 0 0
0 0 0 0 0 0 0 0 0 0 1 2 2 2 3 3 3 3 3 3 4 4 5 5 6 6 6 6 5 5 3 1 1 1 2 1 0 0 0 0 0 0 0 0 0 0 0 0 0
0 0 0 0 0 0 0 0 0 0 0 1 1 1 2 3 3 3 3 3 3 3 4 4 4 4 3 3 3 2 1 0 0 1 1 0 0 0 0 0 0 0 0 0 0 0 0 0 0
0 0 0 0 0 0 0 0 0 0 0 1 2 2 3 3 3 3 3 3 3 2 2 2 2 2 1 1 1 0 0 0 0 0 0 0 0 0 0 0 0 0 0 0 0 0 0 0 0
0 0 0 0 0 0 0 0 0 0 0 1 2 2 2 2 2 2 3 3 2 1 0 1 1 1 0 0 0 0 0 0 0 0 0 0 0 0 0 0 0 0 0 0 0 0 0 0 0
0 0 0 0 0 0 0 0 0 0 0 0 1 1 0 1 1 1 1 2 1 0 0 0 0 0 0 0 0 0 0 0 0 0 0 0 0 0 0 0 0 0 0 0 0 0 0 0 0
0 0 0 0 0 0 0 0 0 0 0 0 0 0 0 0 0 0 0 0 0 0 0 0 0 0 0 0 0 0 0 0 0 0 0 0 0 0 0 0 0 0 0 0 0 0 0 0 0
0 0 0 0 0 0 0 0 0 0 0 0 0 0 0 0 0 0 0 0 0 0 0 0 0 0 0 0 0 0 0 0 0 0 0 0 0 0 0 0 0 0 0 0 0 0 0 0 0